Wetterdaten: Dienstag, 25.02.2020
Datum Zeit Temp. Aussen Temp. o. S. Temp +5cm Feuchte Auss Luftdruck Regen Sonnenschein Regendauer Solar Windben Empfang
25.02.2020 00:00 10,3 C 10,0 C 8,9 C 96 % 1004,4 hPa 0,0 l/m 0 min 2 min 0 W/m 22,5 km/h (4 Bft) 95,74 %
25.02.2020 00:02 10,3 C 10,0 C 8,9 C 96 % 1004,4 hPa 0,0 l/m 0 min 0 min 0 W/m 19,3 km/h (3 Bft) 94,74 %
25.02.2020 00:04 10,3 C 10,0 C 8,9 C 95 % 1004,4 hPa 0,0 l/m 0 min 0 min 0 W/m 19,3 km/h (3 Bft) 95,74 %
25.02.2020 00:08 10,4 C 9,4 C 8,9 C 95 % 1004,4 hPa 0,0 l/m 0 min 0 min 0 W/m 32,2 km/h (5 Bft) 95,92 %
25.02.2020 00:10 10,4 C 9,4 C 8,9 C 96 % 1004,3 hPa 0,0 l/m 0 min 2 min 0 W/m 19,3 km/h (3 Bft) 97,87 %
25.02.2020 00:12 10,4 C 9,4 C 8,9 C 96 % 1004,4 hPa 0,0 l/m 0 min 2 min 0 W/m 29,0 km/h (5 Bft) 97,87 %
25.02.2020 00:14 10,4 C 8,9 C 8,3 C 96 % 1004,3 hPa 0,0 l/m 0 min 2 min 0 W/m 22,5 km/h (4 Bft) 97,87 %
25.02.2020 00:16 10,4 C 8,9 C 8,3 C 96 % 1004,2 hPa 0,2 l/m 0 min 2 min 0 W/m 19,3 km/h (3 Bft) 95,74 %
25.02.2020 00:18 10,4 C 8,9 C 8,3 C 96 % 1004,2 hPa 0,0 l/m 0 min 2 min 0 W/m 25,7 km/h (4 Bft) 97,87 %
25.02.2020 00:20 10,4 C 8,9 C 8,3 C 95 % 1004,2 hPa 0,0 l/m 0 min 2 min 0 W/m 19,3 km/h (3 Bft) 97,83 %
25.02.2020 00:22 10,4 C 8,9 C 8,3 C 95 % 1004,3 hPa 0,0 l/m 0 min 0 min 0 W/m 22,5 km/h (4 Bft) 95,74 %
25.02.2020 00:24 10,3 C 8,9 C 8,3 C 96 % 1004,2 hPa 0,0 l/m 0 min 0 min 0 W/m 35,4 km/h (5 Bft) 97,87 %
25.02.2020 00:26 10,3 C 8,9 C 8,3 C 96 % 1004,1 hPa 0,0 l/m 0 min 0 min 0 W/m 16,1 km/h (3 Bft) 97,87 %
25.02.2020 00:28 10,3 C 8,9 C 8,3 C 96 % 1004,0 hPa 0,0 l/m 0 min 0 min 0 W/m 32,2 km/h (5 Bft) 97,87 %
25.02.2020 00:30 10,3 C 8,9 C 8,3 C 96 % 1004,2 hPa 0,0 l/m 0 min 0 min 0 W/m 38,6 km/h (5 Bft) 95,74 %
25.02.2020 00:32 10,3 C 8,9 C 8,3 C 96 % 1004,1 hPa 0,0 l/m 0 min 0 min 0 W/m 32,2 km/h (5 Bft) 97,83 %
25.02.2020 00:34 10,3 C 8,9 C 8,3 C 96 % 1004,0 hPa 0,0 l/m 0 min 0 min 0 W/m 32,2 km/h (5 Bft) 97,87 %
25.02.2020 00:36 10,3 C 8,9 C 8,3 C 96 % 1004,0 hPa 0,0 l/m 0 min 0 min 0 W/m 25,7 km/h (4 Bft) 97,87 %
25.02.2020 00:38 10,3 C 8,9 C 8,3 C 96 % 1004,0 hPa 0,0 l/m 0 min 0 min 0 W/m 19,3 km/h (3 Bft) 97,87 %
25.02.2020 00:40 10,3 C 9,4 C 8,3 C 96 % 1004,0 hPa 0,0 l/m 0 min 0 min 0 W/m 25,7 km/h (4 Bft) 100,00 %
25.02.2020 00:42 10,3 C 9,4 C 8,3 C 96 % 1004,0 hPa 0,0 l/m 0 min 0 min 0 W/m 25,7 km/h (4 Bft) 100,00 %
25.02.2020 00:44 10,3 C 9,4 C 8,3 C 96 % 1004,1 hPa 0,0 l/m 0 min 0 min 0 W/m 22,5 km/h (4 Bft) 100,00 %
25.02.2020 00:46 10,3 C 8,9 C 8,3 C 96 % 1004,0 hPa 0,0 l/m 0 min 0 min 0 W/m 19,3 km/h (3 Bft) 97,87 %
25.02.2020 00:48 10,3 C 8,9 C 8,3 C 96 % 1004,0 hPa 0,0 l/m 0 min 2 min 0 W/m 35,4 km/h (5 Bft) 100,00 %
25.02.2020 00:50 10,3 C 8,9 C 8,3 C 96 % 1004,1 hPa 0,0 l/m 0 min 2 min 0 W/m 22,5 km/h (4 Bft) 100,00 %
25.02.2020 00:52 10,3 C 8,9 C 8,3 C 96 % 1003,8 hPa 0,0 l/m 0 min 2 min 0 W/m 29,0 km/h (5 Bft) 100,00 %
25.02.2020 00:54 10,3 C 8,9 C 8,3 C 96 % 1003,9 hPa 0,0 l/m 0 min 2 min 0 W/m 29,0 km/h (5 Bft) 100,00 %
25.02.2020 00:56 10,3 C 8,9 C 8,3 C 96 % 1004,0 hPa 0,0 l/m 0 min 2 min 0 W/m 16,1 km/h (3 Bft) 97,87 %
25.02.2020 00:58 10,3 C 8,9 C 8,3 C 96 % 1003,9 hPa 0,0 l/m 0 min 2 min 0 W/m 35,4 km/h (5 Bft) 100,00 %
25.02.2020 01:00 10,2 C 8,9 C 8,3 C 96 % 1003,8 hPa 0,0 l/m 0 min 2 min 0 W/m 22,5 km/h (4 Bft) 100,00 %
25.02.2020 01:02 10,2 C 8,9 C 8,3 C 96 % 1004,0 hPa 0,0 l/m 0 min 2 min 0 W/m 22,5 km/h (4 Bft) 100,00 %
25.02.2020 01:04 10,2 C 8,9 C 8,3 C 96 % 1003,8 hPa 0,0 l/m 0 min 2 min 0 W/m 35,4 km/h (5 Bft) 97,87 %
25.02.2020 01:06 10,2 C 8,3 C 8,3 C 96 % 1003,9 hPa 0,0 l/m 0 min 2 min 0 W/m 25,7 km/h (4 Bft) 97,83 %
25.02.2020 01:08 10,1 C 8,3 C 8,3 C 96 % 1003,9 hPa 0,0 l/m 0 min 2 min 0 W/m 35,4 km/h (5 Bft) 100,00 %
25.02.2020 01:10 10,1 C 8,3 C 8,3 C 96 % 1003,8 hPa 0,0 l/m 0 min 2 min 0 W/m 22,5 km/h (4 Bft) 100,00 %
25.02.2020 01:12 10,1 C 8,3 C 8,3 C 96 % 1003,9 hPa 0,0 l/m 0 min 2 min 0 W/m 29,0 km/h (5 Bft) 100,00 %
25.02.2020 01:14 10,1 C 8,3 C 8,3 C 96 % 1003,9 hPa 0,0 l/m 0 min 2 min 0 W/m 19,3 km/h (3 Bft) 100,00 %
25.02.2020 01:16 10,1 C 8,3 C 7,8 C 96 % 1004,0 hPa 0,0 l/m 0 min 2 min 0 W/m 25,7 km/h (4 Bft) 100,00 %
25.02.2020 01:18 10,1 C 8,3 C 7,8 C 96 % 1004,0 hPa 0,0 l/m 0 min 0 min 0 W/m 16,1 km/h (3 Bft) 100,00 %
25.02.2020 01:20 10,0 C 8,3 C 7,8 C 96 % 1003,9 hPa 0,0 l/m 0 min 0 min 0 W/m 19,3 km/h (3 Bft) 100,00 %
25.02.2020 01:22 10,0 C 8,3 C 7,8 C 96 % 1003,9 hPa 0,0 l/m 0 min 0 min 0 W/m 19,3 km/h (3 Bft) 100,00 %
25.02.2020 01:24 10,0 C 8,3 C 7,8 C 96 % 1003,9 hPa 0,0 l/m 0 min 0 min 0 W/m 12,9 km/h (3 Bft) 100,00 %
25.02.2020 01:26 10,0 C 8,9 C 8,3 C 96 % 1004,0 hPa 0,0 l/m 0 min 0 min 0 W/m 19,3 km/h (3 Bft) 97,87 %
25.02.2020 01:28 10,0 C 8,9 C 8,3 C 96 % 1004,0 hPa 0,0 l/m 0 min 0 min 0 W/m 19,3 km/h (3 Bft) 100,00 %
25.02.2020 01:30 10,0 C 8,9 C 8,3 C 96 % 1003,9 hPa 0,0 l/m 0 min 0 min 0 W/m 12,9 km/h (3 Bft) 100,00 %
25.02.2020 01:32 10,0 C 8,9 C 8,3 C 96 % 1003,9 hPa 0,0 l/m 0 min 0 min 0 W/m 16,1 km/h (3 Bft) 97,87 %
25.02.2020 01:34 10,0 C 8,9 C 8,3 C 96 % 1003,8 hPa 0,0 l/m 0 min 0 min 0 W/m 12,9 km/h (3 Bft) 100,00 %
25.02.2020 01:36 10,0 C 8,9 C 8,3 C 96 % 1003,7 hPa 0,0 l/m 0 min 0 min 0 W/m 16,1 km/h (3 Bft) 100,00 %
25.02.2020 01:38 9,9 C 8,9 C 8,3 C 96 % 1003,8 hPa 0,0 l/m 0 min 0 min 0 W/m 16,1 km/h (3 Bft) 97,87 %
25.02.2020 01:40 9,9 C 8,9 C 8,3 C 96 % 1003,7 hPa 0,0 l/m 0 min 0 min 0 W/m 16,1 km/h (3 Bft) 100,00 %
25.02.2020 01:42 9,9 C 8,9 C 8,3 C 96 % 1003,7 hPa 0,0 l/m 0 min 0 min 0 W/m 32,2 km/h (5 Bft) 100,00 %
25.02.2020 01:44 9,9 C 8,9 C 8,3 C 96 % 1003,7 hPa 0,0 l/m 0 min 0 min 0 W/m 16,1 km/h (3 Bft) 100,00 %
25.02.2020 01:46 9,9 C 8,9 C 8,3 C 96 % 1003,6 hPa 0,0 l/m 0 min 0 min 0 W/m 9,7 km/h (2 Bft) 100,00 %
25.02.2020 01:48 9,9 C 8,9 C 8,3 C 96 % 1003,6 hPa 0,0 l/m 0 min 0 min 0 W/m 19,3 km/h (3 Bft) 97,87 %
25.02.2020 01:50 9,9 C 8,9 C 8,3 C 96 % 1003,6 hPa 0,0 l/m 0 min 0 min 0 W/m 16,1 km/h (3 Bft) 100,00 %
25.02.2020 01:52 9,9 C 8,9 C 8,3 C 96 % 1003,5 hPa 0,0 l/m 0 min 0 min 0 W/m 16,1 km/h (3 Bft) 100,00 %
25.02.2020 01:54 9,9 C 8,9 C 8,3 C 96 % 1003,7 hPa 0,0 l/m 0 min 0 min 0 W/m 16,1 km/h (3 Bft) 100,00 %
25.02.2020 01:56 9,9 C 8,9 C 8,3 C 96 % 1003,6 hPa 0,0 l/m 0 min 0 min 0 W/m 12,9 km/h (3 Bft) 97,87 %
25.02.2020 01:58 9,9 C 8,9 C 8,3 C 96 % 1003,5 hPa 0,0 l/m 0 min 0 min 0 W/m 19,3 km/h (3 Bft) 97,87 %
25.02.2020 02:00 9,9 C 8,9 C 8,3 C 96 % 1003,6 hPa 0,0 l/m 0 min 0 min 0 W/m 16,1 km/h (3 Bft) 97,87 %
25.02.2020 02:02 9,8 C 8,3 C 7,8 C 96 % 1003,6 hPa 0,0 l/m 0 min 0 min 0 W/m 22,5 km/h (4 Bft) 97,87 %
25.02.2020 02:04 9,8 C 8,3 C 7,8 C 96 % 1003,5 hPa 0,0 l/m 0 min 0 min 0 W/m 22,5 km/h (4 Bft) 95,65 %
25.02.2020 02:06 9,8 C 8,3 C 7,8 C 96 % 1003,5 hPa 0,0 l/m 0 min 0 min 0 W/m 25,7 km/h (4 Bft) 95,74 %
25.02.2020 02:08 9,8 C 8,3 C 7,8 C 95 % 1003,6 hPa 0,0 l/m 0 min 0 min 0 W/m 25,7 km/h (4 Bft) 97,87 %
25.02.2020 02:10 9,8 C 8,3 C 7,8 C 95 % 1003,5 hPa 0,0 l/m 0 min 0 min 0 W/m 19,3 km/h (3 Bft) 97,87 %
25.02.2020 02:12 9,7 C 8,9 C 8,3 C 95 % 1003,9 hPa 0,0 l/m 0 min 0 min 0 W/m 38,6 km/h (5 Bft) 97,87 %
25.02.2020 02:14 9,7 C 8,9 C 8,3 C 95 % 1003,5 hPa 0,0 l/m 0 min 0 min 0 W/m 22,5 km/h (4 Bft) 97,87 %
25.02.2020 02:16 9,7 C 8,9 C 8,3 C 95 % 1003,5 hPa 0,0 l/m 0 min 0 min 0 W/m 22,5 km/h (4 Bft) 97,83 %
25.02.2020 02:18 9,7 C 8,9 C 8,3 C 95 % 1003,5 hPa 0,0 l/m 0 min 0 min 0 W/m 19,3 km/h (3 Bft) 95,74 %
25.02.2020 02:20 9,7 C 8,3 C 7,8 C 95 % 1003,5 hPa 0,0 l/m 0 min 0 min 0 W/m 16,1 km/h (3 Bft) 100,00 %
25.02.2020 02:22 9,7 C 8,3 C 7,8 C 95 % 1003,4 hPa 0,0 l/m 0 min 0 min 0 W/m 25,7 km/h (4 Bft) 97,87 %
25.02.2020 02:24 9,7 C 8,3 C 7,8 C 95 % 1003,5 hPa 0,0 l/m 0 min 0 min 0 W/m 22,5 km/h (4 Bft) 97,87 %
25.02.2020 02:26 9,6 C 8,3 C 7,8 C 95 % 1003,5 hPa 0,0 l/m 0 min 0 min 0 W/m 19,3 km/h (3 Bft) 93,62 %
25.02.2020 02:28 9,6 C 8,3 C 7,8 C 94 % 1003,5 hPa 0,0 l/m 0 min 0 min 0 W/m 22,5 km/h (4 Bft) 91,30 %
25.02.2020 02:30 9,6 C 8,3 C 7,8 C 94 % 1003,4 hPa 0,0 l/m 0 min 0 min 0 W/m 19,3 km/h (3 Bft) 93,62 %
25.02.2020 02:32 9,6 C 8,3 C 7,8 C 94 % 1003,4 hPa 0,0 l/m 0 min 0 min 0 W/m 25,7 km/h (4 Bft) 91,49 %
25.02.2020 02:34 9,6 C 8,3 C 7,8 C 94 % 1003,4 hPa 0,0 l/m 0 min 0 min 0 W/m 22,5 km/h (4 Bft) 93,62 %
25.02.2020 02:36 9,5 C 8,3 C 7,8 C 94 % 1003,3 hPa 0,0 l/m 0 min 0 min 0 W/m 9,7 km/h (2 Bft) 93,62 %
25.02.2020 02:38 9,5 C 8,3 C 7,8 C 94 % 1003,3 hPa 0,0 l/m 0 min 0 min 0 W/m 19,3 km/h (3 Bft) 93,62 %
25.02.2020 02:40 9,5 C 8,3 C 7,8 C 94 % 1003,3 hPa 0,0 l/m 0 min 2 min 0 W/m 19,3 km/h (3 Bft) 91,30 %
25.02.2020 02:42 9,5 C 8,9 C 7,8 C 93 % 1003,3 hPa 0,0 l/m 0 min 0 min 0 W/m 16,1 km/h (3 Bft) 91,49 %
25.02.2020 02:44 9,5 C 8,9 C 7,8 C 93 % 1003,4 hPa 0,0 l/m 0 min 0 min 0 W/m 19,3 km/h (3 Bft) 95,74 %
25.02.2020 02:46 9,5 C 8,9 C 7,8 C 93 % 1003,3 hPa 0,0 l/m 0 min 0 min 0 W/m 19,3 km/h (3 Bft) 91,49 %
25.02.2020 02:48 9,5 C 8,9 C 7,8 C 93 % 1003,3 hPa 0,0 l/m 0 min 2 min 0 W/m 22,5 km/h (4 Bft) 97,87 %
25.02.2020 02:50 9,5 C 8,9 C 7,8 C 93 % 1003,2 hPa 0,0 l/m 0 min 0 min 0 W/m 25,7 km/h (4 Bft) 95,65 %
25.02.2020 02:52 9,6 C 8,9 C 7,8 C 93 % 1003,3 hPa 0,0 l/m 0 min 0 min 0 W/m 35,4 km/h (5 Bft) 95,74 %
25.02.2020 02:54 9,5 C 8,9 C 7,8 C 93 % 1003,2 hPa 0,0 l/m 0 min 2 min 0 W/m 19,3 km/h (3 Bft) 59,57 %
25.02.2020 02:56 9,6 C 8,9 C 7,8 C 93 % 1003,2 hPa 0,0 l/m 0 min 0 min 0 W/m 19,3 km/h (3 Bft) 89,66 %
25.02.2020 02:58 9,6 C 8,9 C 7,8 C 93 % 1003,1 hPa 0,0 l/m 0 min 0 min 0 W/m 25,7 km/h (4 Bft) 95,74 %
25.02.2020 03:00 9,6 C 8,9 C 7,8 C 93 % 1003,1 hPa 0,0 l/m 0 min 2 min 0 W/m 22,5 km/h (4 Bft) 95,74 %
25.02.2020 03:02 9,6 C 8,9 C 7,8 C 93 % 1003,1 hPa 0,0 l/m 0 min 0 min 0 W/m 25,7 km/h (4 Bft) 95,74 %
25.02.2020 03:04 9,6 C 8,9 C 8,3 C 93 % 1003,1 hPa 0,0 l/m 0 min 2 min 0 W/m 19,3 km/h (3 Bft) 95,65 %
25.02.2020 03:06 9,6 C 8,9 C 8,3 C 93 % 1003,1 hPa 0,0 l/m 0 min 0 min 0 W/m 19,3 km/h (3 Bft) 95,74 %
25.02.2020 03:08 9,6 C 8,9 C 8,3 C 93 % 1003,1 hPa 0,0 l/m 0 min 0 min 0 W/m 25,7 km/h (4 Bft) 95,74 %
25.02.2020 03:10 9,6 C 8,9 C 8,3 C 92 % 1003,3 hPa 0,0 l/m 0 min 0 min 0 W/m 25,7 km/h (4 Bft) 95,74 %
25.02.2020 03:12 9,6 C 8,9 C 7,8 C 92 % 1003,1 hPa 0,0 l/m 0 min 0 min 0 W/m 16,1 km/h (3 Bft) 95,74 %
25.02.2020 03:14 9,6 C 8,9 C 7,8 C 92 % 1003,1 hPa 0,0 l/m 0 min 0 min 0 W/m 19,3 km/h (3 Bft) 95,65 %
25.02.2020 03:16 9,6 C 8,9 C 7,8 C 92 % 1003,0 hPa 0,0 l/m 0 min 0 min 0 W/m 29,0 km/h (5 Bft) 95,74 %
25.02.2020 03:18 9,6 C 8,9 C 7,8 C 92 % 1003,0 hPa 0,0 l/m 0 min 0 min 0 W/m 25,7 km/h (4 Bft) 93,62 %
25.02.2020 03:20 9,6 C 8,9 C 7,8 C 92 % 1003,0 hPa 0,0 l/m 0 min 0 min 0 W/m 19,3 km/h (3 Bft) 97,87 %
25.02.2020 03:22 9,6 C 8,9 C 7,8 C 92 % 1002,9 hPa 0,0 l/m 0 min 0 min 0 W/m 22,5 km/h (4 Bft) 100,00 %
25.02.2020 03:24 9,6 C 8,3 C 7,8 C 92 % 1002,9 hPa 0,0 l/m 0 min 0 min 0 W/m 16,1 km/h (3 Bft) 100,00 %
25.02.2020 03:26 9,6 C 8,3 C 7,8 C 92 % 1003,0 hPa 0,0 l/m 0 min 0 min 0 W/m 16,1 km/h (3 Bft) 100,00 %
25.02.2020 03:28 9,5 C 8,3 C 7,8 C 92 % 1003,0 hPa 0,0 l/m 0 min 0 min 0 W/m 19,3 km/h (3 Bft) 100,00 %
25.02.2020 03:30 9,5 C 8,3 C 7,8 C 92 % 1003,0 hPa 0,0 l/m 0 min 0 min 0 W/m 32,2 km/h (5 Bft) 95,74 %
25.02.2020 03:32 9,4 C 8,3 C 7,8 C 92 % 1002,9 hPa 0,0 l/m 0 min 0 min 0 W/m 12,9 km/h (3 Bft) 97,87 %
25.02.2020 03:34 9,4 C 8,3 C 7,8 C 92 % 1002,8 hPa 0,0 l/m 0 min 0 min 0 W/m 19,3 km/h (3 Bft) 97,87 %
25.02.2020 03:36 9,4 C 8,3 C 7,8 C 92 % 1002,8 hPa 0,0 l/m 0 min 0 min 0 W/m 12,9 km/h (3 Bft) 100,00 %
25.02.2020 03:38 9,4 C 8,3 C 7,8 C 92 % 1002,7 hPa 0,0 l/m 0 min 0 min 0 W/m 22,5 km/h (4 Bft) 100,00 %
25.02.2020 03:40 9,3 C 8,3 C 7,8 C 92 % 1002,7 hPa 0,0 l/m 0 min 0 min 0 W/m 19,3 km/h (3 Bft) 97,87 %
25.02.2020 03:42 9,3 C 8,3 C 7,8 C 92 % 1002,8 hPa 0,0 l/m 0 min 0 min 0 W/m 22,5 km/h (4 Bft) 100,00 %
25.02.2020 03:44 9,3 C 8,3 C 7,8 C 92 % 1002,8 hPa 0,0 l/m 0 min 0 min 0 W/m 12,9 km/h (3 Bft) 100,00 %
25.02.2020 03:46 9,3 C 8,3 C 7,8 C 92 % 1002,7 hPa 0,0 l/m 0 min 0 min 0 W/m 16,1 km/h (3 Bft) 97,87 %
25.02.2020 03:48 9,3 C 8,3 C 7,8 C 92 % 1002,7 hPa 0,0 l/m 0 min 0 min 0 W/m 19,3 km/h (3 Bft) 100,00 %
25.02.2020 03:50 9,2 C 8,3 C 7,8 C 91 % 1002,6 hPa 0,0 l/m 0 min 0 min 0 W/m 12,9 km/h (3 Bft) 97,83 %
25.02.2020 03:52 9,2 C 8,3 C 7,8 C 91 % 1002,7 hPa 0,0 l/m 0 min 0 min 0 W/m 16,1 km/h (3 Bft) 100,00 %
25.02.2020 03:54 9,2 C 8,3 C 7,8 C 91 % 1002,8 hPa 0,0 l/m 0 min 0 min 0 W/m 16,1 km/h (3 Bft) 97,87 %
25.02.2020 03:56 9,2 C 8,3 C 7,8 C 91 % 1002,7 hPa 0,0 l/m 0 min 0 min 0 W/m 19,3 km/h (3 Bft) 100,00 %
25.02.2020 03:58 9,2 C 8,3 C 7,8 C 91 % 1002,6 hPa 0,0 l/m 0 min 0 min 0 W/m 22,5 km/h (4 Bft) 100,00 %
25.02.2020 04:00 9,1 C 8,3 C 7,8 C 91 % 1002,7 hPa 0,0 l/m 0 min 0 min 0 W/m 16,1 km/h (3 Bft) 100,00 %
25.02.2020 04:02 9,1 C 8,3 C 7,8 C 91 % 1002,6 hPa 0,0 l/m 0 min 0 min 0 W/m 6,4 km/h (2 Bft) 100,00 %
25.02.2020 04:04 9,1 C 8,3 C 7,8 C 91 % 1002,7 hPa 0,0 l/m 0 min 0 min 0 W/m 12,9 km/h (3 Bft) 100,00 %
25.02.2020 04:06 9,1 C 8,3 C 7,8 C 91 % 1002,6 hPa 0,0 l/m 0 min 0 min 0 W/m 19,3 km/h (3 Bft) 100,00 %
25.02.2020 04:08 9,1 C 8,3 C 7,8 C 91 % 1002,6 hPa 0,0 l/m 0 min 0 min 0 W/m 16,1 km/h (3 Bft) 100,00 %
25.02.2020 04:10 9,1 C 8,3 C 7,8 C 91 % 1002,6 hPa 0,0 l/m 0 min 0 min 0 W/m 12,9 km/h (3 Bft) 100,00 %
25.02.2020 04:12 9,0 C 7,8 C 7,8 C 91 % 1002,6 hPa 0,0 l/m 0 min 0 min 0 W/m 16,1 km/h (3 Bft) 100,00 %
25.02.2020 04:14 9,0 C 7,8 C 7,2 C 90 % 1002,6 hPa 0,0 l/m 0 min 0 min 0 W/m 19,3 km/h (3 Bft) 100,00 %
25.02.2020 04:16 8,9 C 7,8 C 7,2 C 90 % 1002,6 hPa 0,0 l/m 0 min 0 min 0 W/m 16,1 km/h (3 Bft) 100,00 %
25.02.2020 04:18 8,9 C 7,8 C 7,2 C 90 % 1002,5 hPa 0,0 l/m 0 min 0 min 0 W/m 19,3 km/h (3 Bft) 100,00 %
25.02.2020 04:20 8,9 C 7,8 C 7,2 C 90 % 1002,6 hPa 0,0 l/m 0 min 0 min 0 W/m 12,9 km/h (3 Bft) 100,00 %
25.02.2020 04:22 8,9 C 7,8 C 7,2 C 90 % 1002,6 hPa 0,0 l/m 0 min 0 min 0 W/m 19,3 km/h (3 Bft) 100,00 %
25.02.2020 04:24 8,8 C 7,8 C 7,2 C 90 % 1002,5 hPa 0,0 l/m 0 min 0 min 0 W/m 9,7 km/h (2 Bft) 100,00 %
25.02.2020 04:26 8,8 C 7,8 C 7,2 C 90 % 1002,4 hPa 0,0 l/m 0 min 0 min 0 W/m 9,7 km/h (2 Bft) 100,00 %
25.02.2020 04:28 8,8 C 7,8 C 7,2 C 90 % 1002,5 hPa 0,0 l/m 0 min 0 min 0 W/m 16,1 km/h (3 Bft) 100,00 %
25.02.2020 04:30 8,8 C 7,8 C 7,2 C 90 % 1002,4 hPa 0,0 l/m 0 min 0 min 0 W/m 19,3 km/h (3 Bft) 100,00 %
25.02.2020 04:32 8,8 C 7,8 C 7,2 C 90 % 1002,5 hPa 0,0 l/m 0 min 0 min 0 W/m 16,1 km/h (3 Bft) 97,87 %
25.02.2020 04:34 8,7 C 7,8 C 7,2 C 90 % 1002,5 hPa 0,0 l/m 0 min 0 min 0 W/m 16,1 km/h (3 Bft) 97,87 %
25.02.2020 04:36 8,7 C 7,8 C 7,2 C 90 % 1002,4 hPa 0,0 l/m 0 min 0 min 0 W/m 22,5 km/h (4 Bft) 100,00 %
25.02.2020 04:38 8,7 C 7,8 C 7,2 C 90 % 1002,4 hPa 0,0 l/m 0 min 0 min 0 W/m 22,5 km/h (4 Bft) 100,00 %
25.02.2020 04:40 8,7 C 7,8 C 7,2 C 90 % 1002,4 hPa 0,0 l/m 0 min 0 min 0 W/m 25,7 km/h (4 Bft) 100,00 %
25.02.2020 04:42 8,6 C 7,8 C 7,2 C 90 % 1002,4 hPa 0,0 l/m 0 min 0 min 0 W/m 12,9 km/h (3 Bft) 95,74 %
25.02.2020 04:44 8,6 C 7,8 C 7,2 C 90 % 1002,5 hPa 0,0 l/m 0 min 0 min 0 W/m 16,1 km/h (3 Bft) 93,62 %
25.02.2020 04:46 8,6 C 7,8 C 7,2 C 90 % 1002,5 hPa 0,0 l/m 0 min 0 min 0 W/m 12,9 km/h (3 Bft) 97,87 %
25.02.2020 04:48 8,6 C 7,8 C 7,2 C 90 % 1002,4 hPa 0,0 l/m 0 min 0 min 0 W/m 19,3 km/h (3 Bft) 95,65 %
25.02.2020 04:50 8,6 C 7,8 C 7,2 C 90 % 1002,4 hPa 0,0 l/m 0 min 0 min 0 W/m 16,1 km/h (3 Bft) 97,87 %
25.02.2020 04:52 8,6 C 7,8 C 7,2 C 90 % 1002,4 hPa 0,0 l/m 0 min 0 min 0 W/m 19,3 km/h (3 Bft) 97,87 %
25.02.2020 04:54 8,5 C 7,8 C 7,2 C 90 % 1002,4 hPa 0,0 l/m 0 min 0 min 0 W/m 16,1 km/h (3 Bft) 97,87 %
25.02.2020 04:56 8,5 C 7,8 C 7,2 C 91 % 1002,5 hPa 0,0 l/m 0 min 0 min 0 W/m 16,1 km/h (3 Bft) 97,87 %
25.02.2020 04:58 8,5 C 7,8 C 7,2 C 91 % 1002,5 hPa 0,0 l/m 0 min 0 min 0 W/m 16,1 km/h (3 Bft) 95,74 %
25.02.2020 05:00 8,4 C 7,8 C 7,2 C 91 % 1002,4 hPa 0,0 l/m 0 min 0 min 0 W/m 16,1 km/h (3 Bft) 97,83 %
25.02.2020 05:02 8,4 C 7,8 C 7,2 C 91 % 1002,4 hPa 0,0 l/m 0 min 0 min 0 W/m 25,7 km/h (4 Bft) 95,74 %
25.02.2020 05:04 8,4 C 7,8 C 7,2 C 91 % 1002,5 hPa 0,0 l/m 0 min 0 min 0 W/m 22,5 km/h (4 Bft) 95,74 %
25.02.2020 05:06 8,4 C 7,8 C 7,2 C 91 % 1002,5 hPa 0,0 l/m 0 min 0 min 0 W/m 22,5 km/h (4 Bft) 93,62 %
25.02.2020 05:08 8,4 C 7,8 C 7,2 C 91 % 1002,6 hPa 0,0 l/m 0 min 0 min 0 W/m 19,3 km/h (3 Bft) 95,74 %
25.02.2020 05:10 8,4 C 7,8 C 7,2 C 91 % 1002,5 hPa 0,0 l/m 0 min 0 min 0 W/m 12,9 km/h (3 Bft) 95,65 %
25.02.2020 05:12 8,4 C 7,8 C 7,2 C 91 % 1002,5 hPa 0,0 l/m 0 min 0 min 0 W/m 19,3 km/h (3 Bft) 93,62 %
25.02.2020 05:14 8,4 C 7,8 C 7,2 C 91 % 1002,6 hPa 0,0 l/m 0 min 0 min 0 W/m 22,5 km/h (4 Bft) 95,74 %
25.02.2020 05:16 8,4 C 7,8 C 7,2 C 91 % 1002,5 hPa 0,0 l/m 0 min 0 min 0 W/m 16,1 km/h (3 Bft) 93,62 %
25.02.2020 05:18 8,4 C 7,2 C 6,7 C 91 % 1002,5 hPa 0,0 l/m 0 min 0 min 0 W/m 9,7 km/h (2 Bft) 95,74 %
25.02.2020 05:20 8,3 C 7,2 C 6,7 C 91 % 1002,7 hPa 0,0 l/m 0 min 0 min 0 W/m 19,3 km/h (3 Bft) 95,74 %
25.02.2020 05:22 8,3 C 7,2 C 6,7 C 91 % 1002,6 hPa 0,0 l/m 0 min 0 min 0 W/m 19,3 km/h (3 Bft) 100,00 %
25.02.2020 05:24 8,3 C 7,2 C 6,7 C 91 % 1002,5 hPa 0,0 l/m 0 min 0 min 0 W/m 16,1 km/h (3 Bft) 95,74 %
25.02.2020 05:26 8,3 C 7,2 C 6,7 C 91 % 1002,6 hPa 0,0 l/m 0 min 0 min 0 W/m 19,3 km/h (3 Bft) 95,74 %
25.02.2020 05:28 8,3 C 7,8 C 7,2 C 91 % 1002,5 hPa 0,0 l/m 0 min 0 min 0 W/m 19,3 km/h (3 Bft) 95,74 %
25.02.2020 05:30 8,3 C 7,8 C 7,2 C 91 % 1002,5 hPa 0,0 l/m 0 min 0 min 0 W/m 25,7 km/h (4 Bft) 97,87 %
25.02.2020 05:32 8,3 C 7,2 C 6,7 C 91 % 1002,5 hPa 0,0 l/m 0 min 0 min 0 W/m 16,1 km/h (3 Bft) 97,87 %
25.02.2020 05:34 8,3 C 7,2 C 6,7 C 91 % 1002,5 hPa 0,0 l/m 0 min 0 min 0 W/m 22,5 km/h (4 Bft) 95,65 %
25.02.2020 05:36 8,2 C 7,2 C 6,7 C 91 % 1002,5 hPa 0,0 l/m 0 min 0 min 0 W/m 12,9 km/h (3 Bft) 95,74 %
25.02.2020 05:38 8,2 C 7,2 C 6,7 C 91 % 1002,4 hPa 0,0 l/m 0 min 0 min 0 W/m 19,3 km/h (3 Bft) 97,87 %
25.02.2020 05:40 8,2 C 7,2 C 6,7 C 91 % 1002,4 hPa 0,0 l/m 0 min 0 min 0 W/m 16,1 km/h (3 Bft) 97,87 %
25.02.2020 05:42 8,2 C 7,2 C 6,7 C 91 % 1002,5 hPa 0,0 l/m 0 min 0 min 0 W/m 22,5 km/h (4 Bft) 97,87 %
25.02.2020 05:44 8,2 C 7,2 C 6,7 C 91 % 1002,5 hPa 0,0 l/m 0 min 0 min 0 W/m 12,9 km/h (3 Bft) 97,87 %
25.02.2020 05:46 8,2 C 7,2 C 6,7 C 90 % 1002,5 hPa 0,0 l/m 0 min 0 min 0 W/m 16,1 km/h (3 Bft) 97,83 %
25.02.2020 05:48 8,1 C 7,2 C 6,7 C 90 % 1002,5 hPa 0,0 l/m 0 min 0 min 0 W/m 16,1 km/h (3 Bft) 95,74 %
25.02.2020 05:50 8,1 C 7,2 C 6,7 C 90 % 1002,5 hPa 0,0 l/m 0 min 0 min 0 W/m 12,9 km/h (3 Bft) 97,87 %
25.02.2020 05:52 8,1 C 7,2 C 6,7 C 90 % 1002,5 hPa 0,0 l/m 0 min 0 min 0 W/m 12,9 km/h (3 Bft) 95,74 %
25.02.2020 05:54 8,1 C 7,2 C 6,7 C 90 % 1002,6 hPa 0,0 l/m 0 min 0 min 0 W/m 12,9 km/h (3 Bft) 97,87 %
25.02.2020 05:56 8,1 C 7,2 C 6,7 C 90 % 1002,6 hPa 0,0 l/m 0 min 0 min 0 W/m 22,5 km/h (4 Bft) 93,62 %
25.02.2020 05:58 8,0 C 7,2 C 6,7 C 91 % 1002,6 hPa 0,0 l/m 0 min 0 min 0 W/m 16,1 km/h (3 Bft) 97,83 %
25.02.2020 06:00 8,0 C 7,2 C 6,7 C 91 % 1002,5 hPa 0,0 l/m 0 min 0 min 0 W/m 9,7 km/h (2 Bft) 97,87 %
25.02.2020 06:02 8,0 C 7,2 C 6,7 C 91 % 1002,5 hPa 0,0 l/m 0 min 0 min 0 W/m 9,7 km/h (2 Bft) 95,74 %
25.02.2020 06:04 7,9 C 7,2 C 6,7 C 91 % 1002,5 hPa 0,0 l/m 0 min 0 min 0 W/m 16,1 km/h (3 Bft) 97,87 %
25.02.2020 06:08 7,9 C 7,2 C 6,7 C 91 % 1002,4 hPa 0,0 l/m 0 min 0 min 0 W/m 22,5 km/h (4 Bft) 97,85 %
25.02.2020 06:10 7,9 C 7,2 C 6,7 C 91 % 1002,5 hPa 0,0 l/m 0 min 0 min 0 W/m 19,3 km/h (3 Bft) 97,87 %
25.02.2020 06:12 7,9 C 7,2 C 6,7 C 91 % 1002,4 hPa 0,0 l/m 0 min 0 min 0 W/m 16,1 km/h (3 Bft) 97,87 %
25.02.2020 06:14 7,9 C 7,2 C 6,7 C 91 % 1002,4 hPa 0,0 l/m 0 min 0 min 0 W/m 19,3 km/h (3 Bft) 97,87 %
25.02.2020 06:16 7,9 C 6,7 C 6,1 C 91 % 1002,3 hPa 0,0 l/m 0 min 0 min 0 W/m 12,9 km/h (3 Bft) 97,87 %
25.02.2020 06:18 7,8 C 6,7 C 6,1 C 90 % 1002,3 hPa 0,0 l/m 0 min 0 min 0 W/m 9,7 km/h (2 Bft) 97,87 %
25.02.2020 06:20 7,8 C 6,7 C 6,1 C 91 % 1002,2 hPa 0,0 l/m 0 min 0 min 0 W/m 6,4 km/h (2 Bft) 97,83 %
25.02.2020 06:22 7,8 C 6,7 C 6,1 C 91 % 1002,2 hPa 0,0 l/m 0 min 0 min 0 W/m 22,5 km/h (4 Bft) 97,87 %
25.02.2020 06:24 7,8 C 6,7 C 6,1 C 91 % 1002,2 hPa 0,0 l/m 0 min 0 min 0 W/m 16,1 km/h (3 Bft) 95,74 %
25.02.2020 06:26 7,8 C 7,2 C 6,7 C 91 % 1002,1 hPa 0,0 l/m 0 min 0 min 0 W/m 12,9 km/h (3 Bft) 97,87 %
25.02.2020 06:28 7,8 C 7,2 C 6,7 C 91 % 1002,1 hPa 0,0 l/m 0 min 0 min 0 W/m 9,7 km/h (2 Bft) 97,87 %
25.02.2020 06:30 7,7 C 7,2 C 6,7 C 91 % 1002,1 hPa 0,0 l/m 0 min 0 min 0 W/m 22,5 km/h (4 Bft) 97,87 %
25.02.2020 06:32 7,7 C 7,2 C 6,7 C 91 % 1002,1 hPa 0,0 l/m 0 min 0 min 0 W/m 22,5 km/h (4 Bft) 97,83 %
25.02.2020 06:34 7,7 C 7,2 C 6,7 C 91 % 1002,1 hPa 0,0 l/m 0 min 0 min 0 W/m 16,1 km/h (3 Bft) 97,87 %
25.02.2020 06:36 7,7 C 7,2 C 6,7 C 91 % 1002,1 hPa 0,0 l/m 0 min 0 min 0 W/m 19,3 km/h (3 Bft) 97,87 %
25.02.2020 06:38 7,7 C 7,2 C 6,7 C 91 % 1002,1 hPa 0,0 l/m 0 min 0 min 0 W/m 9,7 km/h (2 Bft) 100,00 %
25.02.2020 06:40 7,8 C 7,2 C 6,7 C 91 % 1002,1 hPa 0,0 l/m 0 min 0 min 0 W/m 12,9 km/h (3 Bft) 100,00 %
25.02.2020 06:42 7,7 C 7,2 C 6,7 C 91 % 1002,1 hPa 0,0 l/m 0 min 0 min 0 W/m 12,9 km/h (3 Bft) 100,00 %
25.02.2020 06:44 7,8 C 7,2 C 6,7 C 91 % 1002,1 hPa 0,0 l/m 0 min 0 min 0 W/m 12,9 km/h (3 Bft) 100,00 %
25.02.2020 06:46 7,8 C 7,2 C 6,7 C 91 % 1002,2 hPa 0,0 l/m 0 min 0 min 0 W/m 16,1 km/h (3 Bft) 97,87 %
25.02.2020 06:48 7,8 C 7,2 C 6,7 C 91 % 1002,1 hPa 0,0 l/m 0 min 2 min 0 W/m 16,1 km/h (3 Bft) 100,00 %
25.02.2020 06:50 7,8 C 7,2 C 6,7 C 91 % 1002,1 hPa 0,0 l/m 0 min 0 min 0 W/m 12,9 km/h (3 Bft) 100,00 %
25.02.2020 06:52 7,8 C 7,2 C 6,7 C 91 % 1002,1 hPa 0,0 l/m 0 min 0 min 0 W/m 12,9 km/h (3 Bft) 100,00 %
25.02.2020 06:54 7,8 C 7,2 C 6,7 C 91 % 1002,2 hPa 0,0 l/m 0 min 0 min 0 W/m 6,4 km/h (2 Bft) 95,74 %
25.02.2020 06:56 7,8 C 7,2 C 6,7 C 91 % 1002,1 hPa 0,0 l/m 0 min 2 min 0 W/m 6,4 km/h (2 Bft) 97,83 %
25.02.2020 06:58 7,8 C 7,2 C 6,7 C 91 % 1002,0 hPa 0,0 l/m 0 min 0 min 0 W/m 6,4 km/h (2 Bft) 100,00 %
25.02.2020 07:00 7,8 C 7,2 C 6,7 C 91 % 1002,1 hPa 0,0 l/m 0 min 2 min 0 W/m 12,9 km/h (3 Bft) 100,00 %
25.02.2020 07:02 7,8 C 6,7 C 6,1 C 91 % 1002,0 hPa 0,0 l/m 0 min 2 min 0 W/m 6,4 km/h (2 Bft) 97,87 %
25.02.2020 07:04 7,8 C 6,7 C 6,1 C 91 % 1002,0 hPa 0,0 l/m 0 min 2 min 0 W/m 9,7 km/h (2 Bft) 100,00 %
25.02.2020 07:06 7,8 C 6,7 C 6,1 C 91 % 1002,0 hPa 0,0 l/m 0 min 2 min 0 W/m 12,9 km/h (3 Bft) 100,00 %
25.02.2020 07:08 7,8 C 6,7 C 6,1 C 92 % 1002,1 hPa 0,0 l/m 0 min 2 min 0 W/m 16,1 km/h (3 Bft) 100,00 %
25.02.2020 07:10 7,8 C 6,1 C 6,1 C 92 % 1002,0 hPa 0,0 l/m 0 min 2 min 0 W/m 6,4 km/h (2 Bft) 97,87 %
25.02.2020 07:12 7,8 C 6,1 C 5,6 C 92 % 1002,1 hPa 0,0 l/m 0 min 2 min 0 W/m 12,9 km/h (3 Bft) 91,49 %
25.02.2020 07:14 7,8 C 6,1 C 5,6 C 92 % 1002,0 hPa 0,0 l/m 0 min 2 min 0 W/m 12,9 km/h (3 Bft) 100,00 %
25.02.2020 07:16 7,8 C 6,1 C 5,6 C 92 % 1002,0 hPa 0,0 l/m 0 min 2 min 0 W/m 16,1 km/h (3 Bft) 97,87 %
25.02.2020 07:18 7,8 C 6,1 C 5,6 C 92 % 1002,0 hPa 0,0 l/m 0 min 2 min 0 W/m 19,3 km/h (3 Bft) 100,00 %
25.02.2020 07:20 7,8 C 6,1 C 5,6 C 92 % 1002,1 hPa 0,0 l/m 0 min 2 min 0 W/m 12,9 km/h (3 Bft) 97,83 %
25.02.2020 07:22 7,7 C 6,1 C 5,6 C 92 % 1002,0 hPa 0,0 l/m 0 min 2 min 0 W/m 12,9 km/h (3 Bft) 97,87 %
25.02.2020 07:24 7,7 C 6,7 C 5,6 C 92 % 1002,1 hPa 0,0 l/m 0 min 2 min 0 W/m 16,1 km/h (3 Bft) 100,00 %
25.02.2020 07:26 7,7 C 6,7 C 5,6 C 92 % 1002,0 hPa 0,0 l/m 0 min 0 min 0 W/m 6,4 km/h (2 Bft) 97,87 %
25.02.2020 07:28 7,7 C 6,7 C 5,6 C 92 % 1002,0 hPa 0,0 l/m 0 min 0 min 0 W/m 6,4 km/h (2 Bft) 95,74 %
25.02.2020 07:30 7,7 C 6,7 C 5,6 C 92 % 1002,0 hPa 0,0 l/m 0 min 0 min 0 W/m 9,7 km/h (2 Bft) 97,83 %
25.02.2020 07:32 7,7 C 6,7 C 5,6 C 92 % 1002,0 hPa 0,0 l/m 0 min 0 min 0 W/m 6,4 km/h (2 Bft) 97,87 %
25.02.2020 07:34 7,7 C 6,7 C 5,6 C 92 % 1002,1 hPa 0,0 l/m 0 min 0 min 0 W/m 6,4 km/h (2 Bft) 95,74 %
25.02.2020 07:36 7,7 C 6,7 C 5,6 C 92 % 1002,0 hPa 0,0 l/m 0 min 0 min 0 W/m 6,4 km/h (2 Bft) 89,36 %
25.02.2020 07:38 7,7 C 6,7 C 5,6 C 92 % 1001,9 hPa 0,0 l/m 0 min 0 min 0 W/m 9,7 km/h (2 Bft) 95,74 %
25.02.2020 07:40 7,7 C 6,7 C 5,6 C 92 % 1001,9 hPa 0,0 l/m 0 min 0 min 0 W/m 19,3 km/h (3 Bft) 95,74 %
25.02.2020 07:42 7,6 C 6,7 C 5,6 C 92 % 1001,9 hPa 0,0 l/m 0 min 0 min 5 W/m 16,1 km/h (3 Bft) 95,65 %
25.02.2020 07:44 7,6 C 6,7 C 5,6 C 92 % 1001,9 hPa 0,0 l/m 0 min 0 min 5 W/m 6,4 km/h (2 Bft) 95,74 %
25.02.2020 07:46 7,6 C 6,7 C 5,6 C 92 % 1001,9 hPa 0,0 l/m 0 min 0 min 7 W/m 6,4 km/h (2 Bft) 97,87 %
25.02.2020 07:48 7,6 C 6,7 C 5,6 C 92 % 1001,9 hPa 0,0 l/m 0 min 0 min 7 W/m 12,9 km/h (3 Bft) 95,74 %
25.02.2020 07:50 7,6 C 6,7 C 5,6 C 92 % 1001,8 hPa 0,0 l/m 0 min 0 min 8 W/m 6,4 km/h (2 Bft) 95,74 %
25.02.2020 07:52 7,6 C 6,7 C 5,6 C 92 % 1001,8 hPa 0,0 l/m 0 min 0 min 10 W/m 12,9 km/h (3 Bft) 93,62 %
25.02.2020 07:54 7,6 C 6,7 C 5,6 C 92 % 1001,8 hPa 0,0 l/m 0 min 0 min 12 W/m 9,7 km/h (2 Bft) 93,48 %
25.02.2020 07:56 7,5 C 6,7 C 5,6 C 92 % 1001,8 hPa 0,0 l/m 0 min 0 min 13 W/m 6,4 km/h (2 Bft) 95,74 %
25.02.2020 07:58 7,5 C 6,7 C 5,6 C 92 % 1001,8 hPa 0,0 l/m 0 min 0 min 14 W/m 9,7 km/h (2 Bft) 91,49 %
25.02.2020 08:00 7,5 C 6,7 C 6,1 C 92 % 1001,8 hPa 0,0 l/m 0 min 0 min 12 W/m 9,7 km/h (2 Bft) 95,74 %
25.02.2020 08:02 7,4 C 6,7 C 6,1 C 92 % 1001,8 hPa 0,0 l/m 0 min 0 min 11 W/m 9,7 km/h (2 Bft) 95,74 %
25.02.2020 08:04 7,4 C 6,7 C 6,1 C 92 % 1001,9 hPa 0,0 l/m 0 min 0 min 7 W/m 9,7 km/h (2 Bft) 95,74 %
25.02.2020 08:06 7,4 C 6,7 C 6,1 C 92 % 1001,8 hPa 0,0 l/m 0 min 0 min 7 W/m 16,1 km/h (3 Bft) 93,48 %
25.02.2020 08:08 7,4 C 6,7 C 6,1 C 92 % 1001,8 hPa 0,0 l/m 0 min 0 min 11 W/m 12,9 km/h (3 Bft) 95,74 %
25.02.2020 08:10 7,4 C 6,7 C 6,1 C 92 % 1001,9 hPa 0,0 l/m 0 min 0 min 12 W/m 12,9 km/h (3 Bft) 93,62 %
25.02.2020 08:12 7,4 C 6,7 C 6,1 C 91 % 1001,7 hPa 0,0 l/m 0 min 0 min 15 W/m 19,3 km/h (3 Bft) 97,87 %
25.02.2020 08:14 7,4 C 7,2 C 6,1 C 91 % 1001,9 hPa 0,0 l/m 0 min 0 min 18 W/m 19,3 km/h (3 Bft) 97,87 %
25.02.2020 08:16 7,4 C 7,2 C 6,1 C 91 % 1001,9 hPa 0,0 l/m 0 min 2 min 22 W/m 25,7 km/h (4 Bft) 100,00 %
25.02.2020 08:18 7,4 C 7,2 C 6,1 C 91 % 1001,8 hPa 0,0 l/m 0 min 0 min 24 W/m 19,3 km/h (3 Bft) 100,00 %
25.02.2020 08:20 7,4 C 7,2 C 6,1 C 91 % 1001,8 hPa 0,0 l/m 0 min 0 min 26 W/m 19,3 km/h (3 Bft) 100,00 %
25.02.2020 08:22 7,4 C 7,2 C 6,1 C 91 % 1001,8 hPa 0,0 l/m 0 min 2 min 31 W/m 22,5 km/h (4 Bft) 95,74 %
25.02.2020 08:24 7,4 C 7,2 C 6,7 C 90 % 1001,8 hPa 0,0 l/m 0 min 2 min 33 W/m 22,5 km/h (4 Bft) 95,74 %
25.02.2020 08:26 7,4 C 7,2 C 6,7 C 90 % 1001,8 hPa 0,0 l/m 0 min 0 min 33 W/m 19,3 km/h (3 Bft) 100,00 %
25.02.2020 08:28 7,5 C 7,2 C 6,7 C 90 % 1001,8 hPa 0,0 l/m 0 min 0 min 34 W/m 16,1 km/h (3 Bft) 100,00 %
25.02.2020 08:30 7,4 C 7,2 C 6,1 C 90 % 1001,9 hPa 0,0 l/m 0 min 0 min 40 W/m 12,9 km/h (3 Bft) 100,00 %
25.02.2020 08:32 7,5 C 7,2 C 6,1 C 90 % 1001,9 hPa 0,0 l/m 0 min 0 min 46 W/m 12,9 km/h (3 Bft) 97,87 %
25.02.2020 08:34 7,5 C 7,2 C 6,1 C 90 % 1001,8 hPa 0,0 l/m 0 min 0 min 54 W/m 29,0 km/h (5 Bft) 97,87 %
25.02.2020 08:36 7,4 C 7,2 C 6,7 C 89 % 1002,0 hPa 0,0 l/m 0 min 0 min 57 W/m 16,1 km/h (3 Bft) 94,74 %
25.02.2020 08:38 7,4 C 7,2 C 6,7 C 89 % 1001,9 hPa 0,0 l/m 0 min 0 min 58 W/m 19,3 km/h (3 Bft) 100,00 %
25.02.2020 08:40 7,4 C 7,2 C 6,7 C 89 % 1001,9 hPa 0,0 l/m 0 min 0 min 58 W/m 25,7 km/h (4 Bft) 100,00 %
25.02.2020 08:42 7,4 C 7,2 C 6,7 C 89 % 1001,9 hPa 0,0 l/m 0 min 0 min 65 W/m 19,3 km/h (3 Bft) 100,00 %
25.02.2020 08:44 7,4 C 7,2 C 6,7 C 88 % 1001,9 hPa 0,0 l/m 0 min 0 min 63 W/m 12,9 km/h (3 Bft) 100,00 %
25.02.2020 08:46 7,4 C 7,2 C 6,7 C 88 % 1001,9 hPa 0,0 l/m 0 min 0 min 54 W/m 16,1 km/h (3 Bft) 100,00 %
25.02.2020 08:48 7,4 C 7,2 C 6,1 C 88 % 1001,9 hPa 0,0 l/m 0 min 0 min 46 W/m 12,9 km/h (3 Bft) 100,00 %
25.02.2020 08:50 7,4 C 7,2 C 6,1 C 88 % 1001,9 hPa 0,0 l/m 0 min 0 min 40 W/m 19,3 km/h (3 Bft) 100,00 %
25.02.2020 08:52 7,4 C 7,2 C 6,1 C 87 % 1001,9 hPa 0,0 l/m 0 min 0 min 40 W/m 12,9 km/h (3 Bft) 100,00 %
25.02.2020 08:54 7,4 C 7,2 C 6,1 C 87 % 1001,9 hPa 0,0 l/m 0 min 0 min 43 W/m 16,1 km/h (3 Bft) 100,00 %
25.02.2020 08:56 7,4 C 7,2 C 6,1 C 87 % 1001,9 hPa 0,0 l/m 0 min 0 min 43 W/m 19,3 km/h (3 Bft) 97,87 %
25.02.2020 08:58 7,3 C 6,7 C 6,1 C 87 % 1001,9 hPa 0,0 l/m 0 min 0 min 38 W/m 12,9 km/h (3 Bft) 100,00 %
25.02.2020 09:00 7,3 C 6,7 C 6,1 C 87 % 1001,9 hPa 0,0 l/m 0 min 0 min 36 W/m 32,2 km/h (5 Bft) 97,87 %
25.02.2020 09:02 7,3 C 6,7 C 6,1 C 86 % 1001,9 hPa 0,0 l/m 0 min 0 min 37 W/m 16,1 km/h (3 Bft) 97,87 %
25.02.2020 09:04 7,3 C 6,7 C 6,1 C 85 % 1001,9 hPa 0,0 l/m 0 min 0 min 39 W/m 25,7 km/h (4 Bft) 97,83 %
25.02.2020 09:06 7,3 C 6,7 C 6,1 C 85 % 1001,8 hPa 0,0 l/m 0 min 0 min 39 W/m 22,5 km/h (4 Bft) 97,87 %
25.02.2020 09:08 7,2 C 6,7 C 6,1 C 84 % 1001,9 hPa 0,0 l/m 0 min 0 min 40 W/m 22,5 km/h (4 Bft) 97,87 %
25.02.2020 09:10 7,2 C 6,7 C 6,1 C 84 % 1001,8 hPa 0,0 l/m 0 min 0 min 40 W/m 25,7 km/h (4 Bft) 95,74 %
25.02.2020 09:12 7,3 C 6,7 C 6,1 C 84 % 1001,8 hPa 0,0 l/m 0 min 0 min 40 W/m 16,1 km/h (3 Bft) 95,74 %
25.02.2020 09:14 7,2 C 7,2 C 6,1 C 84 % 1001,8 hPa 0,0 l/m 0 min 0 min 40 W/m 16,1 km/h (3 Bft) 95,74 %
25.02.2020 09:16 7,3 C 7,2 C 6,1 C 84 % 1001,7 hPa 0,0 l/m 0 min 0 min 42 W/m 22,5 km/h (4 Bft) 97,83 %
25.02.2020 09:18 7,2 C 7,2 C 6,1 C 84 % 1001,7 hPa 0,0 l/m 0 min 0 min 42 W/m 19,3 km/h (3 Bft) 95,74 %
25.02.2020 09:20 7,3 C 7,2 C 6,1 C 84 % 1001,9 hPa 0,0 l/m 0 min 0 min 43 W/m 41,8 km/h (6 Bft) 97,87 %
25.02.2020 09:22 7,3 C 7,2 C 6,1 C 83 % 1001,8 hPa 0,0 l/m 0 min 0 min 92 W/m 22,5 km/h (4 Bft) 95,74 %
25.02.2020 09:24 7,3 C 8,9 C 6,1 C 83 % 1001,9 hPa 0,0 l/m 2 min 0 min 230 W/m 35,4 km/h (5 Bft) 95,74 %
25.02.2020 09:26 7,4 C 10,0 C 6,1 C 83 % 1001,8 hPa 0,0 l/m 2 min 0 min 229 W/m 29,0 km/h (5 Bft) 97,83 %
25.02.2020 09:28 7,4 C 10,0 C 6,1 C 83 % 1001,8 hPa 0,0 l/m 2 min 0 min 251 W/m 16,1 km/h (3 Bft) 97,87 %
25.02.2020 09:30 7,5 C 10,0 C 6,7 C 83 % 1001,8 hPa 0,0 l/m 2 min 0 min 259 W/m 35,4 km/h (5 Bft) 95,74 %
25.02.2020 09:32 7,6 C 10,0 C 6,7 C 83 % 1001,9 hPa 0,0 l/m 2 min 0 min 273 W/m 25,7 km/h (4 Bft) 97,87 %
25.02.2020 09:34 7,6 C 10,0 C 6,7 C 83 % 1001,9 hPa 0,0 l/m 2 min 0 min 144 W/m 16,1 km/h (3 Bft) 97,87 %
25.02.2020 09:36 7,6 C 10,0 C 7,2 C 83 % 1001,8 hPa 0,0 l/m 2 min 0 min 286 W/m 22,5 km/h (4 Bft) 95,74 %
25.02.2020 09:38 7,7 C 11,1 C 7,8 C 83 % 1001,8 hPa 0,0 l/m 2 min 0 min 285 W/m 16,1 km/h (3 Bft) 95,65 %
25.02.2020 09:40 7,7 C 10,6 C 7,8 C 83 % 1001,8 hPa 0,0 l/m 2 min 0 min 291 W/m 29,0 km/h (5 Bft) 97,87 %
25.02.2020 09:42 7,8 C 11,1 C 7,8 C 82 % 1001,9 hPa 0,0 l/m 2 min 0 min 300 W/m 25,7 km/h (4 Bft) 97,87 %
25.02.2020 09:44 7,8 C 11,1 C 7,8 C 82 % 1001,8 hPa 0,0 l/m 2 min 0 min 306 W/m 29,0 km/h (5 Bft) 97,87 %
25.02.2020 09:46 7,9 C 11,7 C 8,3 C 83 % 1001,7 hPa 0,0 l/m 2 min 0 min 304 W/m 25,7 km/h (4 Bft) 100,00 %
25.02.2020 09:48 8,0 C 11,7 C 7,8 C 82 % 1001,8 hPa 0,0 l/m 2 min 0 min 336 W/m 16,1 km/h (3 Bft) 100,00 %
25.02.2020 09:50 8,1 C 12,2 C 7,8 C 82 % 1001,7 hPa 0,0 l/m 2 min 0 min 327 W/m 19,3 km/h (3 Bft) 97,83 %
25.02.2020 09:52 8,1 C 11,7 C 7,2 C 83 % 1001,7 hPa 0,0 l/m 2 min 0 min 320 W/m 29,0 km/h (5 Bft) 97,87 %
25.02.2020 09:54 8,2 C 11,7 C 7,2 C 82 % 1001,7 hPa 0,0 l/m 2 min 0 min 318 W/m 35,4 km/h (5 Bft) 100,00 %
25.02.2020 09:56 8,2 C 11,7 C 7,2 C 81 % 1001,6 hPa 0,0 l/m 2 min 0 min 327 W/m 16,1 km/h (3 Bft) 100,00 %
25.02.2020 09:58 8,3 C 11,7 C 7,2 C 81 % 1001,7 hPa 0,0 l/m 2 min 0 min 329 W/m 19,3 km/h (3 Bft) 97,87 %
25.02.2020 10:00 8,3 C 11,7 C 7,2 C 82 % 1001,7 hPa 0,0 l/m 2 min 0 min 339 W/m 19,3 km/h (3 Bft) 95,74 %
25.02.2020 10:02 8,3 C 11,7 C 7,2 C 81 % 1001,7 hPa 0,0 l/m 2 min 0 min 354 W/m 19,3 km/h (3 Bft) 97,78 %
25.02.2020 10:04 8,4 C 11,1 C 7,2 C 81 % 1001,8 hPa 0,0 l/m 2 min 0 min 360 W/m 25,7 km/h (4 Bft) 97,96 %
25.02.2020 10:06 8,4 C 11,7 C 7,2 C 80 % 1001,7 hPa 0,0 l/m 2 min 0 min 391 W/m 35,4 km/h (5 Bft) 95,83 %
25.02.2020 10:08 8,4 C 11,1 C 7,2 C 81 % 1001,7 hPa 0,0 l/m 2 min 0 min 380 W/m 22,5 km/h (4 Bft) 97,22 %
25.02.2020 10:10 8,5 C 11,7 C 7,8 C 80 % 1001,7 hPa 0,0 l/m 2 min 0 min 441 W/m 22,5 km/h (4 Bft) 93,62 %
25.02.2020 10:12 8,6 C 11,7 C 7,8 C 80 % 1001,7 hPa 0,0 l/m 2 min 0 min 443 W/m 22,5 km/h (4 Bft) 95,74 %
25.02.2020 10:14 8,6 C 10,0 C 7,8 C 80 % 1001,7 hPa 0,0 l/m 2 min 0 min 465 W/m 25,7 km/h (4 Bft) 97,87 %
25.02.2020 10:16 8,6 C 11,1 C 7,8 C 80 % 1001,7 hPa 0,0 l/m 2 min 0 min 230 W/m 19,3 km/h (3 Bft) 95,74 %
25.02.2020 10:18 8,6 C 10,0 C 7,8 C 80 % 1001,7 hPa 0,0 l/m 2 min 0 min 379 W/m 22,5 km/h (4 Bft) 97,87 %
25.02.2020 10:20 8,6 C 9,4 C 7,8 C 80 % 1001,6 hPa 0,0 l/m 0 min 0 min 175 W/m 22,5 km/h (4 Bft) 97,83 %
25.02.2020 10:22 8,6 C 10,6 C 7,8 C 80 % 1001,6 hPa 0,0 l/m 2 min 0 min 234 W/m 16,1 km/h (3 Bft) 97,87 %
25.02.2020 10:24 8,6 C 10,6 C 7,8 C 79 % 1001,6 hPa 0,0 l/m 2 min 0 min 491 W/m 25,7 km/h (4 Bft) 95,74 %
25.02.2020 10:26 8,7 C 10,6 C 7,8 C 79 % 1001,6 hPa 0,0 l/m 2 min 0 min 195 W/m 19,3 km/h (3 Bft) 97,87 %
25.02.2020 10:28 8,7 C 10,0 C 7,8 C 79 % 1001,6 hPa 0,0 l/m 0 min 0 min 175 W/m 22,5 km/h (4 Bft) 95,74 %
25.02.2020 10:30 8,7 C 9,4 C 7,8 C 78 % 1001,5 hPa 0,0 l/m 0 min 0 min 171 W/m 29,0 km/h (5 Bft) 97,83 %
25.02.2020 10:32 8,6 C 10,0 C 7,8 C 78 % 1001,6 hPa 0,0 l/m 0 min 0 min 132 W/m 22,5 km/h (4 Bft) 93,62 %
25.02.2020 10:34 8,6 C 11,1 C 7,8 C 78 % 1001,6 hPa 0,0 l/m 2 min 0 min 395 W/m 25,7 km/h (4 Bft) 95,74 %
25.02.2020 10:36 8,6 C 10,6 C 7,8 C 77 % 1001,5 hPa 0,0 l/m 2 min 0 min 474 W/m 29,0 km/h (5 Bft) 97,87 %
25.02.2020 10:38 8,6 C 10,6 C 7,8 C 78 % 1001,6 hPa 0,0 l/m 0 min 0 min 185 W/m 25,7 km/h (4 Bft) 96,23 %
25.02.2020 10:40 8,6 C 11,1 C 7,8 C 77 % 1001,6 hPa 0,0 l/m 2 min 0 min 441 W/m 19,3 km/h (3 Bft) 100,00 %
25.02.2020 10:42 8,7 C 12,2 C 8,3 C 77 % 1001,6 hPa 0,0 l/m 2 min 0 min 518 W/m 19,3 km/h (3 Bft) 100,00 %
25.02.2020 10:44 8,7 C 12,2 C 8,3 C 77 % 1001,6 hPa 0,0 l/m 2 min 0 min 525 W/m 41,8 km/h (6 Bft) 97,87 %
25.02.2020 10:46 8,8 C 10,6 C 8,3 C 77 % 1001,6 hPa 0,0 l/m 2 min 0 min 562 W/m 38,6 km/h (5 Bft) 100,00 %
25.02.2020 10:48 8,7 C 10,0 C 7,8 C 76 % 1001,5 hPa 0,0 l/m 2 min 0 min 563 W/m 29,0 km/h (5 Bft) 97,83 %
25.02.2020 10:50 8,7 C 11,7 C 8,3 C 77 % 1001,5 hPa 0,0 l/m 2 min 0 min 559 W/m 32,2 km/h (5 Bft) 100,00 %
25.02.2020 10:52 8,8 C 11,1 C 8,3 C 77 % 1001,5 hPa 0,0 l/m 2 min 0 min 539 W/m 22,5 km/h (4 Bft) 97,87 %
25.02.2020 10:54 8,8 C 11,7 C 8,3 C 77 % 1001,6 hPa 0,0 l/m 0 min 0 min 208 W/m 22,5 km/h (4 Bft) 97,87 %
25.02.2020 10:56 8,8 C 11,7 C 8,3 C 76 % 1001,5 hPa 0,0 l/m 2 min 0 min 546 W/m 29,0 km/h (5 Bft) 100,00 %
25.02.2020 10:58 8,9 C 10,0 C 7,8 C 76 % 1001,5 hPa 0,0 l/m 2 min 0 min 423 W/m 25,7 km/h (4 Bft) 98,04 %
25.02.2020 11:00 8,9 C 11,1 C 7,8 C 76 % 1001,5 hPa 0,0 l/m 0 min 0 min 176 W/m 29,0 km/h (5 Bft) 100,00 %
25.02.2020 11:02 8,8 C 10,0 C 7,8 C 76 % 1001,5 hPa 0,0 l/m 0 min 0 min 186 W/m 19,3 km/h (3 Bft) 97,87 %
25.02.2020 11:04 8,8 C 11,1 C 8,3 C 76 % 1001,6 hPa 0,0 l/m 0 min 0 min 189 W/m 16,1 km/h (3 Bft) 97,87 %
25.02.2020 11:06 8,8 C 12,2 C 8,3 C 76 % 1001,5 hPa 0,0 l/m 2 min 0 min 501 W/m 16,1 km/h (3 Bft) 95,74 %
25.02.2020 11:08 8,9 C 11,7 C 8,3 C 76 % 1001,6 hPa 0,0 l/m 2 min 0 min 589 W/m 35,4 km/h (5 Bft) 97,92 %
25.02.2020 11:10 8,9 C 12,2 C 8,3 C 74 % 1001,4 hPa 0,0 l/m 2 min 0 min 595 W/m 35,4 km/h (5 Bft) 95,65 %
25.02.2020 11:12 9,0 C 12,8 C 8,9 C 75 % 1001,4 hPa 0,0 l/m 2 min 0 min 604 W/m 25,7 km/h (4 Bft) 97,87 %
25.02.2020 11:14 9,1 C 13,9 C 8,9 C 75 % 1001,5 hPa 0,0 l/m 2 min 0 min 625 W/m 25,7 km/h (4 Bft) 95,74 %
25.02.2020 11:16 9,3 C 13,9 C 9,4 C 75 % 1001,5 hPa 0,0 l/m 2 min 0 min 458 W/m 25,7 km/h (4 Bft) 97,87 %
25.02.2020 11:18 9,3 C 13,9 C 9,4 C 75 % 1001,4 hPa 0,0 l/m 2 min 0 min 460 W/m 35,4 km/h (5 Bft) 97,87 %
25.02.2020 11:20 9,5 C 13,9 C 9,4 C 75 % 1001,4 hPa 0,0 l/m 2 min 0 min 462 W/m 25,7 km/h (4 Bft) 97,87 %
25.02.2020 11:22 9,6 C 14,4 C 9,4 C 74 % 1001,5 hPa 0,0 l/m 2 min 0 min 464 W/m 19,3 km/h (3 Bft) 97,83 %
25.02.2020 11:24 9,7 C 13,9 C 10,0 C 74 % 1001,4 hPa 0,0 l/m 2 min 0 min 466 W/m 35,4 km/h (5 Bft) 97,87 %
25.02.2020 11:26 9,8 C 13,3 C 9,4 C 73 % 1001,4 hPa 0,0 l/m 2 min 0 min 412 W/m 16,1 km/h (3 Bft) 97,87 %
25.02.2020 11:28 9,9 C 14,4 C 10,0 C 73 % 1001,4 hPa 0,0 l/m 2 min 0 min 591 W/m 19,3 km/h (3 Bft) 95,74 %
25.02.2020 11:30 10,0 C 15,0 C 10,0 C 73 % 1001,4 hPa 0,0 l/m 2 min 0 min 644 W/m 19,3 km/h (3 Bft) 97,87 %
25.02.2020 11:32 10,1 C 13,9 C 9,4 C 72 % 1001,3 hPa 0,0 l/m 2 min 0 min 608 W/m 25,7 km/h (4 Bft) 97,87 %
25.02.2020 11:34 10,1 C 13,9 C 9,4 C 71 % 1001,4 hPa 0,0 l/m 2 min 0 min 621 W/m 32,2 km/h (5 Bft) 95,65 %
25.02.2020 11:36 10,1 C 13,9 C 9,4 C 71 % 1001,4 hPa 0,0 l/m 2 min 0 min 624 W/m 22,5 km/h (4 Bft) 95,74 %
25.02.2020 11:38 10,1 C 14,4 C 9,4 C 71 % 1001,4 hPa 0,0 l/m 2 min 0 min 629 W/m 25,7 km/h (4 Bft) 95,74 %
25.02.2020 11:40 10,1 C 12,2 C 9,4 C 69 % 1001,4 hPa 0,0 l/m 2 min 0 min 608 W/m 35,4 km/h (5 Bft) 95,74 %
25.02.2020 11:42 10,0 C 10,6 C 8,9 C 69 % 1001,4 hPa 0,0 l/m 0 min 0 min 165 W/m 22,5 km/h (4 Bft) 95,74 %
25.02.2020 11:44 9,8 C 9,4 C 8,3 C 69 % 1001,4 hPa 0,0 l/m 0 min 0 min 136 W/m 35,4 km/h (5 Bft) 93,62 %
25.02.2020 11:46 9,6 C 10,6 C 8,3 C 69 % 1001,4 hPa 0,0 l/m 0 min 0 min 170 W/m 25,7 km/h (4 Bft) 95,65 %
25.02.2020 11:48 9,6 C 12,2 C 8,9 C 70 % 1001,5 hPa 0,0 l/m 0 min 0 min 227 W/m 29,0 km/h (5 Bft) 97,44 %
25.02.2020 11:50 9,6 C 13,3 C 8,9 C 70 % 1001,4 hPa 0,0 l/m 2 min 0 min 620 W/m 29,0 km/h (5 Bft) 93,48 %
25.02.2020 11:52 9,6 C 13,9 C 9,4 C 71 % 1001,4 hPa 0,0 l/m 2 min 0 min 593 W/m 22,5 km/h (4 Bft) 93,62 %
25.02.2020 11:54 9,7 C 14,4 C 9,4 C 71 % 1001,5 hPa 0,0 l/m 2 min 0 min 589 W/m 22,5 km/h (4 Bft) 95,74 %
25.02.2020 11:56 9,8 C 13,9 C 9,4 C 72 % 1001,4 hPa 0,0 l/m 2 min 0 min 577 W/m 19,3 km/h (3 Bft) 95,74 %
25.02.2020 11:58 9,9 C 13,9 C 9,4 C 70 % 1001,4 hPa 0,0 l/m 2 min 0 min 589 W/m 25,7 km/h (4 Bft) 93,62 %
25.02.2020 12:00 9,9 C 12,8 C 9,4 C 69 % 1001,4 hPa 0,0 l/m 2 min 0 min 621 W/m 22,5 km/h (4 Bft) 95,65 %
25.02.2020 12:02 9,9 C 14,4 C 9,4 C 70 % 1001,4 hPa 0,0 l/m 2 min 0 min 633 W/m 19,3 km/h (3 Bft) 95,74 %
25.02.2020 12:04 10,0 C 12,8 C 9,4 C 70 % 1001,3 hPa 0,0 l/m 2 min 0 min 604 W/m 22,5 km/h (4 Bft) 95,74 %
25.02.2020 12:08 10,0 C 12,2 C 9,4 C 70 % 1001,4 hPa 0,0 l/m 4 min 0 min 449 W/m 19,3 km/h (3 Bft) 94,68 %
25.02.2020 12:10 9,9 C 11,7 C 9,4 C 71 % 1001,4 hPa 0,0 l/m 2 min 0 min 373 W/m 16,1 km/h (3 Bft) 91,49 %
25.02.2020 12:12 9,9 C 11,7 C 8,9 C 71 % 1001,4 hPa 0,0 l/m 2 min 0 min 252 W/m 19,3 km/h (3 Bft) 93,48 %
25.02.2020 12:14 9,8 C 10,6 C 8,9 C 71 % 1001,4 hPa 0,0 l/m 0 min 0 min 166 W/m 16,1 km/h (3 Bft) 93,62 %
25.02.2020 12:16 9,7 C 9,4 C 8,3 C 71 % 1001,3 hPa 0,0 l/m 0 min 0 min 101 W/m 19,3 km/h (3 Bft) 91,49 %
25.02.2020 12:18 9,6 C 8,9 C 7,8 C 70 % 1001,3 hPa 0,0 l/m 0 min 0 min 127 W/m 25,7 km/h (4 Bft) 95,74 %
25.02.2020 12:20 9,3 C 8,3 C 7,8 C 70 % 1001,3 hPa 0,0 l/m 0 min 0 min 109 W/m 16,1 km/h (3 Bft) 95,74 %
25.02.2020 12:22 9,1 C 8,9 C 7,8 C 71 % 1001,2 hPa 0,0 l/m 0 min 0 min 104 W/m 22,5 km/h (4 Bft) 89,13 %
25.02.2020 12:24 9,1 C 11,1 C 7,8 C 72 % 1001,2 hPa 0,0 l/m 0 min 0 min 211 W/m 16,1 km/h (3 Bft) 95,74 %
25.02.2020 12:26 9,1 C 12,8 C 8,3 C 73 % 1001,2 hPa 0,0 l/m 2 min 0 min 320 W/m 16,1 km/h (3 Bft) 93,62 %
25.02.2020 12:28 9,1 C 13,9 C 8,3 C 73 % 1001,1 hPa 0,0 l/m 2 min 0 min 554 W/m 16,1 km/h (3 Bft) 95,74 %
25.02.2020 12:30 9,2 C 13,9 C 8,9 C 73 % 1001,1 hPa 0,0 l/m 2 min 0 min 550 W/m 19,3 km/h (3 Bft) 95,74 %
25.02.2020 12:32 9,4 C 14,4 C 8,9 C 74 % 1001,0 hPa 0,0 l/m 2 min 0 min 548 W/m 16,1 km/h (3 Bft) 93,62 %
25.02.2020 12:34 9,5 C 14,4 C 9,4 C 73 % 1001,0 hPa 0,0 l/m 2 min 0 min 550 W/m 16,1 km/h (3 Bft) 93,48 %
25.02.2020 12:36 9,6 C 15,0 C 9,4 C 74 % 1001,0 hPa 0,0 l/m 2 min 0 min 553 W/m 12,9 km/h (3 Bft) 95,74 %
25.02.2020 12:38 9,7 C 15,0 C 10,0 C 74 % 1001,0 hPa 0,0 l/m 2 min 0 min 554 W/m 16,1 km/h (3 Bft) 95,74 %
25.02.2020 12:40 9,8 C 13,9 C 10,0 C 73 % 1000,9 hPa 0,0 l/m 2 min 0 min 550 W/m 22,5 km/h (4 Bft) 95,74 %
25.02.2020 12:42 9,9 C 13,9 C 10,0 C 71 % 1001,0 hPa 0,0 l/m 2 min 0 min 550 W/m 45,1 km/h (6 Bft) 95,74 %
25.02.2020 12:44 10,0 C 13,9 C 10,6 C 72 % 1000,9 hPa 0,0 l/m 2 min 0 min 550 W/m 29,0 km/h (5 Bft) 95,74 %
25.02.2020 12:46 10,0 C 13,3 C 11,1 C 72 % 1001,0 hPa 0,0 l/m 2 min 0 min 563 W/m 19,3 km/h (3 Bft) 97,83 %
25.02.2020 12:48 10,1 C 14,4 C 12,2 C 72 % 1000,9 hPa 0,0 l/m 2 min 0 min 555 W/m 29,0 km/h (5 Bft) 97,87 %
25.02.2020 12:50 10,1 C 13,9 C 13,3 C 72 % 1001,0 hPa 0,0 l/m 2 min 0 min 550 W/m 29,0 km/h (5 Bft) 97,87 %
25.02.2020 12:52 10,2 C 13,9 C 13,9 C 72 % 1000,9 hPa 0,0 l/m 2 min 0 min 548 W/m 19,3 km/h (3 Bft) 93,62 %
25.02.2020 12:54 10,2 C 14,4 C 14,4 C 72 % 1000,8 hPa 0,0 l/m 2 min 0 min 546 W/m 16,1 km/h (3 Bft) 95,74 %
25.02.2020 12:56 10,3 C 14,4 C 14,4 C 71 % 1000,8 hPa 0,0 l/m 2 min 0 min 547 W/m 19,3 km/h (3 Bft) 97,87 %
25.02.2020 12:58 10,3 C 13,9 C 14,4 C 71 % 1000,8 hPa 0,0 l/m 2 min 0 min 548 W/m 19,3 km/h (3 Bft) 97,83 %
25.02.2020 13:00 10,3 C 13,9 C 14,4 C 71 % 1000,7 hPa 0,0 l/m 2 min 0 min 551 W/m 25,7 km/h (4 Bft) 93,62 %
25.02.2020 13:02 10,3 C 14,4 C 15,0 C 71 % 1000,7 hPa 0,0 l/m 2 min 0 min 551 W/m 16,1 km/h (3 Bft) 97,87 %
25.02.2020 13:04 10,3 C 13,9 C 14,4 C 71 % 1000,6 hPa 0,0 l/m 2 min 0 min 554 W/m 25,7 km/h (4 Bft) 97,87 %
25.02.2020 13:06 10,3 C 13,9 C 15,0 C 70 % 1000,6 hPa 0,0 l/m 2 min 0 min 549 W/m 22,5 km/h (4 Bft) 97,87 %
25.02.2020 13:08 10,4 C 14,4 C 14,4 C 70 % 1000,6 hPa 0,0 l/m 2 min 0 min 550 W/m 19,3 km/h (3 Bft) 97,87 %
25.02.2020 13:10 10,4 C 14,4 C 15,0 C 70 % 1000,6 hPa 0,0 l/m 2 min 0 min 549 W/m 19,3 km/h (3 Bft) 97,83 %
25.02.2020 13:12 10,4 C 13,9 C 13,9 C 70 % 1000,5 hPa 0,0 l/m 2 min 0 min 552 W/m 22,5 km/h (4 Bft) 97,87 %
25.02.2020 13:14 10,5 C 13,9 C 12,2 C 70 % 1000,6 hPa 0,0 l/m 2 min 0 min 562 W/m 22,5 km/h (4 Bft) 100,00 %
25.02.2020 13:16 10,5 C 13,9 C 12,2 C 69 % 1000,5 hPa 0,0 l/m 2 min 0 min 562 W/m 35,4 km/h (5 Bft) 97,87 %
25.02.2020 13:18 10,6 C 13,3 C 11,7 C 69 % 1000,5 hPa 0,0 l/m 2 min 0 min 569 W/m 29,0 km/h (5 Bft) 97,87 %
25.02.2020 13:20 10,5 C 12,8 C 10,6 C 68 % 1000,5 hPa 0,0 l/m 0 min 0 min 190 W/m 29,0 km/h (5 Bft) 100,00 %
25.02.2020 13:22 10,5 C 13,9 C 11,1 C 68 % 1000,5 hPa 0,0 l/m 2 min 0 min 653 W/m 35,4 km/h (5 Bft) 100,00 %
25.02.2020 13:24 10,5 C 14,4 C 11,1 C 66 % 1000,5 hPa 0,0 l/m 2 min 0 min 500 W/m 22,5 km/h (4 Bft) 100,00 %
25.02.2020 13:26 10,6 C 16,1 C 11,1 C 67 % 1000,4 hPa 0,0 l/m 2 min 0 min 683 W/m 19,3 km/h (3 Bft) 100,00 %
25.02.2020 13:28 10,7 C 15,6 C 11,1 C 67 % 1000,4 hPa 0,0 l/m 2 min 0 min 658 W/m 29,0 km/h (5 Bft) 100,00 %
25.02.2020 13:30 10,8 C 16,1 C 11,1 C 67 % 1000,4 hPa 0,0 l/m 2 min 0 min 653 W/m 16,1 km/h (3 Bft) 100,00 %
25.02.2020 13:32 10,8 C 15,0 C 11,1 C 65 % 1000,3 hPa 0,0 l/m 2 min 0 min 620 W/m 45,1 km/h (6 Bft) 100,00 %
25.02.2020 13:34 10,8 C 13,9 C 10,6 C 63 % 1000,3 hPa 0,0 l/m 2 min 0 min 567 W/m 38,6 km/h (5 Bft) 97,87 %
25.02.2020 13:36 10,8 C 13,9 C 10,0 C 63 % 1000,2 hPa 0,0 l/m 2 min 0 min 548 W/m 22,5 km/h (4 Bft) 100,00 %
25.02.2020 13:38 10,8 C 13,9 C 10,0 C 64 % 1000,3 hPa 0,0 l/m 2 min 0 min 548 W/m 25,7 km/h (4 Bft) 97,87 %
25.02.2020 13:40 10,8 C 12,8 C 10,0 C 63 % 1000,2 hPa 0,0 l/m 2 min 0 min 288 W/m 41,8 km/h (6 Bft) 100,00 %
25.02.2020 13:42 10,7 C 13,3 C 10,0 C 62 % 1000,1 hPa 0,0 l/m 2 min 0 min 423 W/m 25,7 km/h (4 Bft) 100,00 %
25.02.2020 13:44 10,7 C 13,3 C 10,0 C 63 % 1000,2 hPa 0,0 l/m 2 min 0 min 546 W/m 29,0 km/h (5 Bft) 100,00 %
25.02.2020 13:46 10,7 C 12,2 C 10,0 C 64 % 1000,2 hPa 0,0 l/m 2 min 0 min 477 W/m 19,3 km/h (3 Bft) 97,87 %
25.02.2020 13:48 10,6 C 11,1 C 9,4 C 63 % 1000,3 hPa 0,0 l/m 0 min 0 min 97 W/m 22,5 km/h (4 Bft) 100,00 %
25.02.2020 13:50 10,5 C 11,1 C 9,4 C 64 % 1000,3 hPa 0,0 l/m 0 min 0 min 120 W/m 25,7 km/h (4 Bft) 100,00 %
25.02.2020 13:52 10,5 C 13,3 C 9,4 C 64 % 1000,3 hPa 0,0 l/m 0 min 0 min 207 W/m 16,1 km/h (3 Bft) 100,00 %
25.02.2020 13:54 10,6 C 12,8 C 10,0 C 66 % 1000,3 hPa 0,0 l/m 2 min 0 min 643 W/m 12,9 km/h (3 Bft) 100,00 %
25.02.2020 13:56 10,6 C 11,7 C 10,0 C 66 % 1000,2 hPa 0,0 l/m 0 min 0 min 201 W/m 6,4 km/h (2 Bft) 100,00 %
25.02.2020 13:58 10,5 C 11,1 C 9,4 C 66 % 1000,1 hPa 0,0 l/m 0 min 0 min 162 W/m 9,7 km/h (2 Bft) 100,00 %
25.02.2020 14:00 10,5 C 10,6 C 9,4 C 66 % 1000,2 hPa 0,0 l/m 0 min 0 min 178 W/m 29,0 km/h (5 Bft) 97,87 %
25.02.2020 14:02 10,4 C 10,0 C 9,4 C 64 % 1000,1 hPa 0,0 l/m 0 min 0 min 172 W/m 22,5 km/h (4 Bft) 95,74 %
25.02.2020 14:04 10,3 C 10,0 C 9,4 C 64 % 1000,1 hPa 0,0 l/m 0 min 0 min 173 W/m 19,3 km/h (3 Bft) 95,35 %
25.02.2020 14:06 10,2 C 10,6 C 9,4 C 65 % 1000,1 hPa 0,0 l/m 0 min 0 min 183 W/m 16,1 km/h (3 Bft) 97,87 %
25.02.2020 14:08 10,1 C 11,7 C 10,0 C 64 % 1000,0 hPa 0,0 l/m 0 min 0 min 223 W/m 19,3 km/h (3 Bft) 95,74 %
25.02.2020 14:10 10,2 C 10,6 C 10,0 C 65 % 1000,0 hPa 0,0 l/m 0 min 0 min 202 W/m 32,2 km/h (5 Bft) 97,87 %
25.02.2020 14:12 10,1 C 10,0 C 9,4 C 63 % 1000,0 hPa 0,0 l/m 0 min 0 min 179 W/m 25,7 km/h (4 Bft) 97,83 %
25.02.2020 14:14 10,1 C 10,0 C 9,4 C 63 % 999,9 hPa 0,0 l/m 0 min 0 min 191 W/m 38,6 km/h (5 Bft) 97,87 %
25.02.2020 14:16 9,9 C 10,0 C 9,4 C 63 % 999,9 hPa 0,0 l/m 0 min 0 min 221 W/m 29,0 km/h (5 Bft) 95,74 %
25.02.2020 14:18 9,9 C 10,0 C 9,4 C 64 % 999,8 hPa 0,0 l/m 2 min 0 min 230 W/m 19,3 km/h (3 Bft) 97,87 %
25.02.2020 14:20 9,9 C 10,0 C 9,4 C 64 % 999,8 hPa 0,0 l/m 0 min 0 min 175 W/m 16,1 km/h (3 Bft) 97,87 %
25.02.2020 14:22 9,9 C 10,6 C 9,4 C 65 % 999,8 hPa 0,0 l/m 0 min 0 min 184 W/m 16,1 km/h (3 Bft) 95,74 %
25.02.2020 14:24 9,9 C 10,6 C 9,4 C 65 % 999,8 hPa 0,0 l/m 0 min 0 min 204 W/m 19,3 km/h (3 Bft) 97,83 %
25.02.2020 14:26 9,9 C 11,1 C 9,4 C 66 % 999,8 hPa 0,0 l/m 0 min 0 min 195 W/m 12,9 km/h (3 Bft) 97,87 %
25.02.2020 14:28 9,9 C 11,7 C 9,4 C 66 % 999,8 hPa 0,0 l/m 0 min 0 min 192 W/m 19,3 km/h (3 Bft) 95,74 %
25.02.2020 14:30 9,9 C 12,2 C 9,4 C 65 % 999,7 hPa 0,0 l/m 0 min 0 min 192 W/m 29,0 km/h (5 Bft) 95,74 %
25.02.2020 14:32 9,9 C 12,2 C 9,4 C 65 % 999,7 hPa 0,0 l/m 2 min 0 min 509 W/m 32,2 km/h (5 Bft) 95,74 %
25.02.2020 14:34 9,9 C 11,7 C 9,4 C 65 % 999,6 hPa 0,0 l/m 2 min 0 min 515 W/m 19,3 km/h (3 Bft) 95,74 %
25.02.2020 14:36 9,9 C 12,2 C 9,4 C 65 % 999,6 hPa 0,0 l/m 2 min 0 min 510 W/m 25,7 km/h (4 Bft) 93,48 %
25.02.2020 14:38 9,9 C 12,8 C 9,4 C 65 % 999,6 hPa 0,0 l/m 2 min 0 min 493 W/m 25,7 km/h (4 Bft) 95,74 %
25.02.2020 14:40 10,0 C 13,9 C 9,4 C 65 % 999,6 hPa 0,0 l/m 2 min 0 min 477 W/m 16,1 km/h (3 Bft) 95,74 %
25.02.2020 14:42 10,1 C 13,9 C 9,4 C 66 % 999,6 hPa 0,0 l/m 2 min 0 min 432 W/m 32,2 km/h (5 Bft) 93,62 %
25.02.2020 14:44 10,2 C 13,9 C 9,4 C 66 % 999,6 hPa 0,0 l/m 2 min 0 min 460 W/m 22,5 km/h (4 Bft) 95,74 %
25.02.2020 14:46 10,2 C 13,3 C 9,4 C 65 % 999,5 hPa 0,0 l/m 2 min 0 min 456 W/m 22,5 km/h (4 Bft) 95,65 %
25.02.2020 14:48 10,3 C 13,9 C 10,0 C 66 % 999,5 hPa 0,0 l/m 2 min 0 min 451 W/m 16,1 km/h (3 Bft) 97,87 %
25.02.2020 14:50 10,4 C 14,4 C 10,0 C 66 % 999,4 hPa 0,0 l/m 2 min 0 min 436 W/m 22,5 km/h (4 Bft) 97,87 %
25.02.2020 14:52 10,4 C 13,9 C 9,4 C 64 % 999,4 hPa 0,0 l/m 2 min 0 min 456 W/m 41,8 km/h (6 Bft) 95,74 %
25.02.2020 14:54 10,4 C 13,3 C 9,4 C 63 % 999,4 hPa 0,0 l/m 2 min 0 min 438 W/m 25,7 km/h (4 Bft) 95,74 %
25.02.2020 14:56 10,5 C 12,8 C 9,4 C 63 % 999,3 hPa 0,0 l/m 2 min 0 min 502 W/m 19,3 km/h (3 Bft) 97,87 %
25.02.2020 14:58 10,5 C 11,7 C 9,4 C 64 % 999,3 hPa 0,0 l/m 2 min 0 min 504 W/m 19,3 km/h (3 Bft) 97,83 %
25.02.2020 15:00 10,5 C 10,6 C 9,4 C 64 % 999,3 hPa 0,0 l/m 0 min 0 min 161 W/m 16,1 km/h (3 Bft) 97,87 %
25.02.2020 15:02 10,4 C 12,2 C 9,4 C 64 % 999,3 hPa 0,0 l/m 0 min 0 min 181 W/m 9,7 km/h (2 Bft) 97,87 %
25.02.2020 15:04 10,4 C 11,7 C 9,4 C 64 % 999,2 hPa 0,0 l/m 0 min 0 min 162 W/m 22,5 km/h (4 Bft) 98,08 %
25.02.2020 15:06 10,4 C 11,7 C 9,4 C 64 % 999,2 hPa 0,0 l/m 0 min 0 min 130 W/m 16,1 km/h (3 Bft) 100,00 %
25.02.2020 15:08 10,4 C 11,7 C 9,4 C 64 % 999,1 hPa 0,0 l/m 2 min 0 min 198 W/m 19,3 km/h (3 Bft) 97,87 %
25.02.2020 15:10 10,3 C 12,2 C 9,4 C 63 % 999,1 hPa 0,0 l/m 2 min 0 min 246 W/m 25,7 km/h (4 Bft) 100,00 %
25.02.2020 15:12 10,3 C 13,3 C 9,4 C 64 % 999,0 hPa 0,0 l/m 2 min 0 min 419 W/m 25,7 km/h (4 Bft) 100,00 %
25.02.2020 15:14 10,3 C 13,3 C 9,4 C 64 % 999,0 hPa 0,0 l/m 2 min 0 min 425 W/m 22,5 km/h (4 Bft) 100,00 %
25.02.2020 15:16 10,3 C 13,3 C 9,4 C 63 % 999,0 hPa 0,0 l/m 2 min 0 min 424 W/m 35,4 km/h (5 Bft) 97,83 %
25.02.2020 15:18 10,4 C 11,7 C 9,4 C 63 % 999,0 hPa 0,0 l/m 2 min 0 min 291 W/m 22,5 km/h (4 Bft) 100,00 %
25.02.2020 15:20 10,3 C 11,7 C 9,4 C 63 % 998,8 hPa 0,0 l/m 0 min 0 min 146 W/m 12,9 km/h (3 Bft) 55,56 %
25.02.2020 15:22 10,3 C 10,6 C 9,4 C 63 % 998,8 hPa 0,0 l/m 0 min 0 min 168 W/m 22,5 km/h (4 Bft) 100,00 %
25.02.2020 15:24 10,3 C 10,0 C 9,4 C 63 % 998,8 hPa 0,0 l/m 0 min 0 min 171 W/m 22,5 km/h (4 Bft) 100,00 %
25.02.2020 15:26 10,2 C 10,0 C 9,4 C 63 % 998,9 hPa 0,0 l/m 0 min 0 min 153 W/m 22,5 km/h (4 Bft) 97,87 %
25.02.2020 15:28 10,2 C 9,4 C 9,4 C 64 % 998,8 hPa 0,0 l/m 0 min 0 min 135 W/m 16,1 km/h (3 Bft) 100,00 %
25.02.2020 15:30 10,1 C 9,4 C 9,4 C 65 % 998,8 hPa 0,0 l/m 0 min 0 min 132 W/m 22,5 km/h (4 Bft) 100,00 %
25.02.2020 15:32 10,1 C 9,4 C 8,9 C 64 % 998,8 hPa 0,0 l/m 0 min 0 min 132 W/m 19,3 km/h (3 Bft) 100,00 %
25.02.2020 15:34 10,0 C 9,4 C 9,4 C 64 % 998,7 hPa 0,0 l/m 0 min 0 min 124 W/m 16,1 km/h (3 Bft) 100,00 %
25.02.2020 15:36 9,9 C 9,4 C 8,9 C 64 % 998,7 hPa 0,0 l/m 0 min 0 min 113 W/m 22,5 km/h (4 Bft) 100,00 %
25.02.2020 15:38 9,9 C 9,4 C 8,9 C 64 % 998,7 hPa 0,0 l/m 0 min 0 min 100 W/m 12,9 km/h (3 Bft) 100,00 %
25.02.2020 15:40 9,9 C 9,4 C 8,9 C 65 % 998,7 hPa 0,0 l/m 0 min 0 min 82 W/m 12,9 km/h (3 Bft) 100,00 %
25.02.2020 15:42 9,8 C 8,9 C 8,9 C 65 % 998,7 hPa 0,0 l/m 0 min 0 min 66 W/m 16,1 km/h (3 Bft) 100,00 %
25.02.2020 15:44 9,8 C 8,9 C 8,9 C 65 % 998,7 hPa 0,0 l/m 0 min 0 min 59 W/m 16,1 km/h (3 Bft) 100,00 %
25.02.2020 15:46 9,8 C 8,9 C 8,9 C 66 % 998,6 hPa 0,0 l/m 0 min 0 min 64 W/m 16,1 km/h (3 Bft) 100,00 %
25.02.2020 15:48 9,7 C 8,9 C 8,9 C 66 % 998,6 hPa 0,0 l/m 0 min 0 min 66 W/m 12,9 km/h (3 Bft) 100,00 %
25.02.2020 15:50 9,7 C 8,9 C 8,9 C 67 % 998,6 hPa 0,0 l/m 0 min 0 min 90 W/m 12,9 km/h (3 Bft) 100,00 %
25.02.2020 15:52 9,7 C 8,9 C 8,9 C 67 % 998,5 hPa 0,0 l/m 0 min 0 min 111 W/m 12,9 km/h (3 Bft) 100,00 %
25.02.2020 15:54 9,6 C 8,9 C 8,9 C 66 % 998,5 hPa 0,0 l/m 0 min 0 min 113 W/m 16,1 km/h (3 Bft) 100,00 %
25.02.2020 15:56 9,6 C 9,4 C 8,9 C 67 % 998,5 hPa 0,0 l/m 0 min 0 min 99 W/m 12,9 km/h (3 Bft) 100,00 %
25.02.2020 15:58 9,6 C 9,4 C 8,9 C 68 % 998,5 hPa 0,0 l/m 0 min 0 min 82 W/m 16,1 km/h (3 Bft) 100,00 %
25.02.2020 16:00 9,6 C 8,9 C 8,9 C 67 % 998,4 hPa 0,0 l/m 0 min 0 min 75 W/m 19,3 km/h (3 Bft) 97,87 %
25.02.2020 16:02 9,6 C 8,9 C 8,9 C 67 % 998,5 hPa 0,0 l/m 0 min 0 min 71 W/m 16,1 km/h (3 Bft) 91,49 %
25.02.2020 16:04 9,6 C 9,4 C 8,9 C 68 % 998,5 hPa 0,0 l/m 0 min 0 min 83 W/m 9,7 km/h (2 Bft) 100,00 %
25.02.2020 16:06 9,5 C 8,9 C 8,9 C 68 % 998,4 hPa 0,0 l/m 0 min 0 min 93 W/m 16,1 km/h (3 Bft) 100,00 %
25.02.2020 16:08 9,5 C 8,9 C 8,9 C 67 % 998,3 hPa 0,0 l/m 0 min 0 min 94 W/m 19,3 km/h (3 Bft) 97,87 %
25.02.2020 16:10 9,5 C 9,4 C 8,9 C 67 % 998,4 hPa 0,0 l/m 0 min 0 min 92 W/m 16,1 km/h (3 Bft) 97,87 %
25.02.2020 16:12 9,5 C 9,4 C 8,9 C 68 % 998,4 hPa 0,0 l/m 0 min 0 min 83 W/m 12,9 km/h (3 Bft) 95,74 %
25.02.2020 16:14 9,5 C 8,9 C 8,9 C 68 % 998,3 hPa 0,0 l/m 0 min 0 min 63 W/m 12,9 km/h (3 Bft) 97,87 %
25.02.2020 16:16 9,5 C 8,9 C 8,3 C 68 % 998,3 hPa 0,0 l/m 0 min 0 min 66 W/m 29,0 km/h (5 Bft) 97,83 %
25.02.2020 16:18 9,5 C 8,9 C 8,3 C 69 % 998,3 hPa 0,0 l/m 0 min 0 min 67 W/m 12,9 km/h (3 Bft) 95,74 %
25.02.2020 16:20 9,4 C 8,9 C 8,3 C 69 % 998,4 hPa 0,0 l/m 0 min 0 min 71 W/m 12,9 km/h (3 Bft) 97,87 %
25.02.2020 16:22 9,4 C 8,9 C 8,3 C 69 % 998,3 hPa 0,0 l/m 0 min 0 min 80 W/m 16,1 km/h (3 Bft) 97,87 %
25.02.2020 16:24 9,4 C 8,9 C 8,3 C 68 % 998,2 hPa 0,0 l/m 0 min 0 min 95 W/m 16,1 km/h (3 Bft) 97,87 %
25.02.2020 16:26 9,4 C 8,9 C 8,3 C 69 % 998,2 hPa 0,0 l/m 0 min 0 min 88 W/m 12,9 km/h (3 Bft) 97,87 %
25.02.2020 16:28 9,4 C 8,9 C 8,3 C 69 % 998,2 hPa 0,0 l/m 0 min 0 min 69 W/m 9,7 km/h (2 Bft) 97,83 %
25.02.2020 16:30 9,4 C 8,9 C 8,3 C 69 % 998,1 hPa 0,0 l/m 0 min 0 min 60 W/m 12,9 km/h (3 Bft) 97,87 %
25.02.2020 16:32 9,3 C 8,3 C 8,3 C 69 % 998,2 hPa 0,0 l/m 0 min 0 min 57 W/m 12,9 km/h (3 Bft) 97,87 %
25.02.2020 16:34 9,3 C 8,3 C 8,3 C 69 % 998,1 hPa 0,0 l/m 0 min 0 min 55 W/m 12,9 km/h (3 Bft) 97,87 %
25.02.2020 16:36 9,3 C 8,3 C 8,3 C 69 % 998,1 hPa 0,0 l/m 0 min 0 min 49 W/m 16,1 km/h (3 Bft) 97,87 %
25.02.2020 16:38 9,3 C 8,3 C 8,3 C 69 % 998,0 hPa 0,0 l/m 0 min 0 min 42 W/m 6,4 km/h (2 Bft) 97,83 %
25.02.2020 16:40 9,2 C 8,3 C 8,3 C 69 % 998,0 hPa 0,0 l/m 0 min 0 min 36 W/m 12,9 km/h (3 Bft) 95,74 %
25.02.2020 16:42 9,2 C 8,3 C 7,8 C 69 % 998,0 hPa 0,0 l/m 0 min 0 min 34 W/m 19,3 km/h (3 Bft) 100,00 %
25.02.2020 16:44 9,2 C 8,3 C 7,8 C 69 % 998,0 hPa 0,0 l/m 0 min 0 min 32 W/m 12,9 km/h (3 Bft) 97,87 %
25.02.2020 16:46 9,1 C 8,3 C 7,8 C 69 % 998,0 hPa 0,0 l/m 0 min 0 min 31 W/m 12,9 km/h (3 Bft) 97,87 %
25.02.2020 16:48 9,1 C 8,3 C 7,8 C 69 % 998,0 hPa 0,0 l/m 0 min 0 min 28 W/m 16,1 km/h (3 Bft) 97,87 %
25.02.2020 16:50 9,1 C 8,3 C 7,8 C 70 % 998,0 hPa 0,0 l/m 0 min 0 min 24 W/m 12,9 km/h (3 Bft) 97,83 %
25.02.2020 16:52 9,1 C 8,3 C 7,8 C 70 % 998,1 hPa 0,0 l/m 0 min 0 min 13 W/m 16,1 km/h (3 Bft) 95,74 %
25.02.2020 16:54 9,1 C 7,8 C 7,8 C 70 % 998,5 hPa 0,0 l/m 0 min 0 min 6 W/m 16,1 km/h (3 Bft) 97,87 %
25.02.2020 16:56 8,9 C 6,1 C 5,6 C 72 % 998,8 hPa 0,0 l/m 0 min 2 min 0 W/m 41,8 km/h (6 Bft) 97,87 %
25.02.2020 16:58 8,7 C 3,9 C 4,4 C 73 % 999,0 hPa 0,2 l/m 0 min 2 min 0 W/m 29,0 km/h (5 Bft) 95,74 %
25.02.2020 17:00 8,3 C 3,3 C 3,9 C 75 % 998,9 hPa 0,2 l/m 0 min 2 min 0 W/m 19,3 km/h (3 Bft) 97,87 %
25.02.2020 17:02 7,8 C 3,3 C 3,3 C 77 % 998,8 hPa 0,0 l/m 0 min 2 min 0 W/m 32,2 km/h (5 Bft) 97,83 %
25.02.2020 17:04 7,3 C 2,8 C 2,8 C 78 % 999,0 hPa 0,4 l/m 0 min 2 min 0 W/m 29,0 km/h (5 Bft) 95,74 %
25.02.2020 17:06 6,8 C 2,2 C 2,2 C 79 % 999,0 hPa 0,4 l/m 0 min 2 min 0 W/m 25,7 km/h (4 Bft) 97,87 %
25.02.2020 17:08 6,5 C 2,2 C 2,8 C 80 % 998,8 hPa 0,2 l/m 0 min 2 min 0 W/m 22,5 km/h (4 Bft) 97,87 %
25.02.2020 17:10 6,2 C 2,8 C 2,8 C 81 % 998,8 hPa 0,2 l/m 0 min 2 min 0 W/m 19,3 km/h (3 Bft) 93,62 %
25.02.2020 17:12 6,0 C 2,8 C 2,8 C 82 % 998,8 hPa 0,0 l/m 0 min 2 min 0 W/m 19,3 km/h (3 Bft) 95,65 %
25.02.2020 17:14 5,8 C 2,8 C 2,8 C 83 % 998,7 hPa 0,2 l/m 0 min 2 min 0 W/m 25,7 km/h (4 Bft) 95,74 %
25.02.2020 17:16 5,6 C 3,3 C 3,3 C 84 % 998,7 hPa 0,2 l/m 0 min 2 min 0 W/m 16,1 km/h (3 Bft) 93,62 %
25.02.2020 17:18 5,6 C 3,3 C 2,8 C 85 % 998,6 hPa 0,0 l/m 0 min 2 min 0 W/m 19,3 km/h (3 Bft) 93,62 %
25.02.2020 17:20 5,4 C 3,3 C 3,3 C 86 % 998,4 hPa 0,0 l/m 0 min 2 min 2 W/m 25,7 km/h (4 Bft) 95,74 %
25.02.2020 17:22 5,4 C 3,3 C 3,3 C 87 % 998,6 hPa 0,0 l/m 0 min 2 min 5 W/m 25,7 km/h (4 Bft) 93,62 %
25.02.2020 17:24 5,3 C 3,3 C 3,3 C 87 % 998,4 hPa 0,0 l/m 0 min 2 min 5 W/m 25,7 km/h (4 Bft) 95,65 %
25.02.2020 17:26 5,3 C 3,3 C 3,3 C 88 % 998,5 hPa 0,2 l/m 0 min 2 min 1 W/m 22,5 km/h (4 Bft) 95,74 %
25.02.2020 17:28 5,2 C 3,3 C 3,3 C 88 % 998,5 hPa 0,0 l/m 0 min 2 min 0 W/m 22,5 km/h (4 Bft) 91,49 %
25.02.2020 17:30 5,2 C 3,3 C 3,3 C 89 % 998,5 hPa 0,2 l/m 0 min 2 min 0 W/m 19,3 km/h (3 Bft) 95,74 %
25.02.2020 17:32 5,2 C 3,3 C 3,3 C 89 % 998,4 hPa 0,0 l/m 0 min 2 min 4 W/m 19,3 km/h (3 Bft) 95,74 %
25.02.2020 17:34 5,2 C 3,3 C 3,3 C 89 % 998,4 hPa 0,0 l/m 0 min 2 min 4 W/m 19,3 km/h (3 Bft) 95,74 %
25.02.2020 17:36 5,2 C 3,3 C 3,3 C 90 % 998,4 hPa 0,2 l/m 0 min 2 min 0 W/m 29,0 km/h (5 Bft) 93,48 %
25.02.2020 17:38 5,2 C 3,3 C 3,3 C 90 % 998,4 hPa 0,0 l/m 0 min 2 min 0 W/m 22,5 km/h (4 Bft) 93,62 %
25.02.2020 17:40 5,2 C 3,3 C 3,3 C 90 % 998,3 hPa 0,0 l/m 0 min 2 min 0 W/m 16,1 km/h (3 Bft) 95,74 %
25.02.2020 17:42 5,2 C 3,3 C 3,3 C 90 % 998,4 hPa 0,0 l/m 0 min 2 min 0 W/m 9,7 km/h (2 Bft) 93,62 %
25.02.2020 17:44 5,2 C 3,3 C 3,3 C 90 % 998,3 hPa 0,2 l/m 0 min 2 min 0 W/m 9,7 km/h (2 Bft) 93,62 %
25.02.2020 17:46 5,2 C 3,3 C 3,3 C 91 % 998,2 hPa 0,0 l/m 0 min 2 min 0 W/m 12,9 km/h (3 Bft) 95,74 %
25.02.2020 17:48 5,2 C 3,3 C 3,3 C 91 % 998,2 hPa 0,0 l/m 0 min 2 min 0 W/m 12,9 km/h (3 Bft) 95,65 %
25.02.2020 17:50 5,2 C 3,9 C 3,3 C 91 % 998,3 hPa 0,0 l/m 0 min 2 min 0 W/m 19,3 km/h (3 Bft) 95,74 %
25.02.2020 17:52 5,2 C 3,9 C 3,3 C 91 % 998,1 hPa 0,0 l/m 0 min 2 min 0 W/m 6,4 km/h (2 Bft) 95,74 %
25.02.2020 17:54 5,2 C 3,9 C 3,3 C 91 % 998,1 hPa 0,0 l/m 0 min 2 min 0 W/m 16,1 km/h (3 Bft) 95,74 %
25.02.2020 17:56 5,2 C 3,9 C 3,3 C 91 % 998,0 hPa 0,0 l/m 0 min 2 min 0 W/m 16,1 km/h (3 Bft) 95,74 %
25.02.2020 17:58 5,2 C 3,9 C 3,3 C 92 % 997,9 hPa 0,0 l/m 0 min 2 min 0 W/m 19,3 km/h (3 Bft) 95,74 %
25.02.2020 18:00 5,2 C 3,9 C 3,3 C 92 % 997,9 hPa 0,0 l/m 0 min 2 min 0 W/m 19,3 km/h (3 Bft) 93,48 %
25.02.2020 18:02 5,2 C 3,9 C 3,3 C 92 % 998,0 hPa 0,0 l/m 0 min 2 min 0 W/m 6,4 km/h (2 Bft) 93,62 %
25.02.2020 18:04 5,2 C 3,9 C 3,3 C 92 % 998,0 hPa 0,0 l/m 0 min 2 min 0 W/m 16,1 km/h (3 Bft) 97,87 %
25.02.2020 18:08 5,2 C 3,9 C 3,3 C 92 % 997,9 hPa 0,0 l/m 0 min 4 min 0 W/m 22,5 km/h (4 Bft) 96,81 %
25.02.2020 18:10 5,2 C 3,9 C 3,3 C 92 % 997,9 hPa 0,0 l/m 0 min 2 min 0 W/m 16,1 km/h (3 Bft) 97,87 %
25.02.2020 18:12 5,2 C 3,9 C 3,3 C 92 % 997,9 hPa 0,0 l/m 0 min 2 min 0 W/m 19,3 km/h (3 Bft) 97,83 %
25.02.2020 18:14 5,2 C 3,9 C 3,3 C 92 % 997,9 hPa 0,0 l/m 0 min 2 min 0 W/m 16,1 km/h (3 Bft) 97,87 %
25.02.2020 18:16 5,2 C 3,9 C 3,3 C 92 % 997,9 hPa 0,2 l/m 0 min 2 min 0 W/m 16,1 km/h (3 Bft) 93,62 %
25.02.2020 18:18 5,2 C 3,3 C 3,3 C 92 % 997,8 hPa 0,0 l/m 0 min 2 min 0 W/m 16,1 km/h (3 Bft) 97,87 %
25.02.2020 18:20 5,2 C 3,3 C 3,3 C 92 % 997,8 hPa 0,0 l/m 0 min 2 min 0 W/m 16,1 km/h (3 Bft) 100,00 %
25.02.2020 18:22 5,2 C 3,3 C 3,3 C 92 % 997,8 hPa 0,0 l/m 0 min 2 min 0 W/m 16,1 km/h (3 Bft) 97,83 %
25.02.2020 18:24 5,1 C 3,3 C 3,3 C 93 % 997,8 hPa 0,0 l/m 0 min 0 min 0 W/m 16,1 km/h (3 Bft) 97,87 %
25.02.2020 18:26 5,1 C 3,9 C 3,3 C 93 % 997,9 hPa 0,0 l/m 0 min 0 min 0 W/m 16,1 km/h (3 Bft) 95,74 %
25.02.2020 18:28 5,1 C 3,9 C 3,3 C 93 % 997,9 hPa 0,0 l/m 0 min 2 min 0 W/m 16,1 km/h (3 Bft) 97,87 %
25.02.2020 18:30 5,1 C 3,9 C 3,3 C 93 % 997,9 hPa 0,0 l/m 0 min 0 min 0 W/m 6,4 km/h (2 Bft) 100,00 %
25.02.2020 18:32 5,1 C 3,9 C 3,3 C 93 % 997,8 hPa 0,0 l/m 0 min 2 min 0 W/m 6,4 km/h (2 Bft) 100,00 %
25.02.2020 18:34 5,1 C 3,3 C 3,3 C 93 % 997,8 hPa 0,0 l/m 0 min 2 min 0 W/m 16,1 km/h (3 Bft) 100,00 %
25.02.2020 18:36 5,1 C 3,3 C 3,3 C 93 % 997,9 hPa 0,2 l/m 0 min 2 min 0 W/m 16,1 km/h (3 Bft) 97,83 %
25.02.2020 18:38 5,1 C 3,3 C 3,3 C 93 % 997,9 hPa 0,0 l/m 0 min 2 min 0 W/m 12,9 km/h (3 Bft) 100,00 %
25.02.2020 18:40 5,1 C 3,3 C 3,3 C 93 % 997,8 hPa 0,0 l/m 0 min 2 min 0 W/m 3,2 km/h (1 Bft) 100,00 %
25.02.2020 18:42 5,1 C 3,3 C 3,3 C 93 % 997,9 hPa 0,0 l/m 0 min 2 min 0 W/m 22,5 km/h (4 Bft) 100,00 %
25.02.2020 18:44 5,1 C 3,3 C 3,3 C 93 % 997,9 hPa 0,2 l/m 0 min 2 min 0 W/m 16,1 km/h (3 Bft) 95,74 %
25.02.2020 18:46 5,0 C 3,3 C 3,3 C 93 % 997,9 hPa 0,2 l/m 0 min 2 min 0 W/m 16,1 km/h (3 Bft) 97,83 %
25.02.2020 18:48 5,0 C 3,3 C 3,3 C 93 % 997,8 hPa 0,0 l/m 0 min 2 min 0 W/m 16,1 km/h (3 Bft) 95,74 %
25.02.2020 18:50 4,9 C 3,3 C 3,3 C 93 % 997,8 hPa 0,0 l/m 0 min 2 min 0 W/m 6,4 km/h (2 Bft) 97,87 %
25.02.2020 18:52 4,9 C 3,3 C 2,8 C 93 % 997,8 hPa 0,2 l/m 0 min 2 min 0 W/m 12,9 km/h (3 Bft) 97,87 %
25.02.2020 18:54 4,9 C 3,3 C 2,8 C 93 % 997,8 hPa 0,0 l/m 0 min 2 min 0 W/m 12,9 km/h (3 Bft) 93,62 %
25.02.2020 18:56 4,8 C 3,3 C 2,8 C 93 % 997,8 hPa 0,0 l/m 0 min 2 min 0 W/m 16,1 km/h (3 Bft) 93,62 %
25.02.2020 18:58 4,8 C 3,3 C 3,3 C 93 % 997,8 hPa 0,0 l/m 0 min 2 min 0 W/m 19,3 km/h (3 Bft) 97,83 %
25.02.2020 19:00 4,8 C 3,3 C 2,8 C 93 % 997,8 hPa 0,0 l/m 0 min 2 min 0 W/m 16,1 km/h (3 Bft) 95,74 %
25.02.2020 19:02 4,7 C 2,8 C 2,8 C 93 % 997,8 hPa 0,0 l/m 0 min 2 min 0 W/m 22,5 km/h (4 Bft) 97,87 %
25.02.2020 19:04 4,7 C 2,8 C 2,8 C 93 % 997,7 hPa 0,0 l/m 0 min 0 min 0 W/m 16,1 km/h (3 Bft) 97,87 %
25.02.2020 19:06 4,7 C 3,3 C 2,8 C 93 % 997,7 hPa 0,0 l/m 0 min 0 min 0 W/m 16,1 km/h (3 Bft) 97,87 %
25.02.2020 19:08 4,7 C 3,3 C 2,8 C 93 % 997,7 hPa 0,0 l/m 0 min 0 min 0 W/m 12,9 km/h (3 Bft) 97,83 %
25.02.2020 19:10 4,6 C 3,3 C 3,3 C 93 % 997,7 hPa 0,0 l/m 0 min 0 min 0 W/m 12,9 km/h (3 Bft) 97,87 %
25.02.2020 19:12 4,6 C 3,3 C 2,8 C 93 % 997,8 hPa 0,0 l/m 0 min 2 min 0 W/m 22,5 km/h (4 Bft) 97,87 %
25.02.2020 19:14 4,6 C 3,3 C 2,8 C 93 % 997,7 hPa 0,0 l/m 0 min 0 min 0 W/m 12,9 km/h (3 Bft) 97,87 %
25.02.2020 19:16 4,6 C 3,3 C 2,8 C 93 % 997,7 hPa 0,0 l/m 0 min 2 min 0 W/m 16,1 km/h (3 Bft) 97,87 %
25.02.2020 19:18 4,6 C 3,3 C 2,8 C 93 % 997,7 hPa 0,0 l/m 0 min 2 min 0 W/m 16,1 km/h (3 Bft) 97,87 %
25.02.2020 19:20 4,5 C 3,3 C 2,8 C 93 % 997,7 hPa 0,0 l/m 0 min 2 min 0 W/m 22,5 km/h (4 Bft) 97,83 %
25.02.2020 19:22 4,5 C 2,8 C 2,8 C 93 % 997,7 hPa 0,2 l/m 0 min 2 min 0 W/m 25,7 km/h (4 Bft) 97,87 %
25.02.2020 19:24 4,4 C 3,3 C 2,8 C 93 % 997,8 hPa 0,0 l/m 0 min 2 min 0 W/m 16,1 km/h (3 Bft) 97,87 %
25.02.2020 19:26 4,4 C 3,3 C 2,8 C 93 % 997,7 hPa 0,0 l/m 0 min 2 min 0 W/m 6,4 km/h (2 Bft) 100,00 %
25.02.2020 19:28 4,4 C 3,3 C 2,8 C 94 % 997,7 hPa 0,0 l/m 0 min 2 min 0 W/m 9,7 km/h (2 Bft) 100,00 %
25.02.2020 19:30 4,4 C 2,8 C 2,8 C 94 % 997,7 hPa 0,0 l/m 0 min 2 min 0 W/m 16,1 km/h (3 Bft) 100,00 %
25.02.2020 19:32 4,4 C 3,3 C 2,8 C 94 % 997,7 hPa 0,0 l/m 0 min 2 min 0 W/m 19,3 km/h (3 Bft) 100,00 %
25.02.2020 19:34 4,4 C 2,8 C 2,8 C 94 % 997,7 hPa 0,0 l/m 0 min 2 min 0 W/m 19,3 km/h (3 Bft) 100,00 %
25.02.2020 19:36 4,4 C 2,8 C 2,8 C 94 % 997,7 hPa 0,0 l/m 0 min 2 min 0 W/m 19,3 km/h (3 Bft) 97,87 %
25.02.2020 19:38 4,3 C 2,8 C 2,8 C 94 % 997,7 hPa 0,0 l/m 0 min 2 min 0 W/m 12,9 km/h (3 Bft) 100,00 %
25.02.2020 19:40 4,4 C 3,3 C 2,8 C 94 % 997,8 hPa 0,0 l/m 0 min 2 min 0 W/m 9,7 km/h (2 Bft) 100,00 %
25.02.2020 19:42 4,3 C 2,8 C 2,8 C 94 % 997,8 hPa 0,0 l/m 0 min 2 min 0 W/m 19,3 km/h (3 Bft) 100,00 %
25.02.2020 19:44 4,3 C 2,8 C 2,8 C 94 % 997,8 hPa 0,0 l/m 0 min 2 min 0 W/m 6,4 km/h (2 Bft) 100,00 %
25.02.2020 19:46 4,3 C 2,8 C 2,8 C 94 % 997,7 hPa 0,0 l/m 0 min 2 min 0 W/m 12,9 km/h (3 Bft) 97,87 %
25.02.2020 19:48 4,2 C 2,8 C 2,8 C 94 % 997,7 hPa 0,0 l/m 0 min 2 min 0 W/m 16,1 km/h (3 Bft) 100,00 %
25.02.2020 19:50 4,2 C 2,8 C 2,8 C 94 % 997,7 hPa 0,0 l/m 0 min 2 min 0 W/m 12,9 km/h (3 Bft) 100,00 %
25.02.2020 19:52 4,1 C 2,8 C 2,8 C 94 % 997,6 hPa 0,0 l/m 0 min 2 min 0 W/m 12,9 km/h (3 Bft) 100,00 %
25.02.2020 19:54 4,1 C 2,8 C 2,8 C 94 % 997,6 hPa 0,0 l/m 0 min 2 min 0 W/m 6,4 km/h (2 Bft) 100,00 %
25.02.2020 19:56 4,1 C 2,8 C 2,8 C 94 % 997,7 hPa 0,0 l/m 0 min 2 min 0 W/m 6,4 km/h (2 Bft) 100,00 %
25.02.2020 19:58 4,1 C 2,8 C 2,8 C 94 % 997,6 hPa 0,0 l/m 0 min 2 min 0 W/m 3,2 km/h (1 Bft) 100,00 %
25.02.2020 20:00 4,0 C 2,8 C 2,8 C 94 % 997,6 hPa 0,0 l/m 0 min 2 min 0 W/m 9,7 km/h (2 Bft) 100,00 %
25.02.2020 20:02 4,0 C 2,8 C 2,8 C 94 % 997,5 hPa 0,0 l/m 0 min 2 min 0 W/m 9,7 km/h (2 Bft) 100,00 %
25.02.2020 20:04 3,9 C 2,8 C 2,8 C 94 % 997,6 hPa 0,0 l/m 0 min 2 min 0 W/m 9,7 km/h (2 Bft) 100,00 %
25.02.2020 20:06 3,9 C 2,8 C 2,2 C 94 % 997,5 hPa 0,2 l/m 0 min 0 min 0 W/m 3,2 km/h (1 Bft) 100,00 %
25.02.2020 20:08 3,9 C 2,2 C 2,2 C 94 % 997,5 hPa 0,0 l/m 0 min 2 min 0 W/m 9,7 km/h (2 Bft) 100,00 %
25.02.2020 20:10 3,9 C 2,8 C 2,2 C 95 % 997,5 hPa 0,0 l/m 0 min 2 min 0 W/m 6,4 km/h (2 Bft) 100,00 %
25.02.2020 20:12 3,8 C 2,8 C 2,2 C 95 % 997,5 hPa 0,0 l/m 0 min 0 min 0 W/m 9,7 km/h (2 Bft) 100,00 %
25.02.2020 20:14 3,8 C 2,8 C 2,2 C 95 % 997,4 hPa 0,0 l/m 0 min 2 min 0 W/m 6,4 km/h (2 Bft) 97,87 %
25.02.2020 20:16 3,8 C 2,8 C 2,2 C 95 % 997,5 hPa 0,0 l/m 0 min 0 min 0 W/m 3,2 km/h (1 Bft) 100,00 %
25.02.2020 20:18 3,8 C 2,8 C 2,8 C 95 % 997,5 hPa 0,0 l/m 0 min 2 min 0 W/m 6,4 km/h (2 Bft) 97,87 %
25.02.2020 20:20 3,8 C 2,8 C 2,8 C 95 % 997,5 hPa 0,0 l/m 0 min 2 min 0 W/m 6,4 km/h (2 Bft) 95,74 %
25.02.2020 20:22 3,8 C 2,8 C 2,8 C 95 % 997,5 hPa 0,0 l/m 0 min 2 min 0 W/m 9,7 km/h (2 Bft) 95,65 %
25.02.2020 20:24 3,8 C 2,8 C 2,2 C 95 % 997,5 hPa 0,0 l/m 0 min 2 min 0 W/m 6,4 km/h (2 Bft) 50,00 %
25.02.2020 20:26 3,7 C 2,2 C 2,2 C 95 % 997,4 hPa 0,0 l/m 0 min 2 min 0 W/m 6,4 km/h (2 Bft) 97,67 %
25.02.2020 20:28 3,7 C 2,2 C 2,2 C 95 % 997,4 hPa 0,0 l/m 0 min 2 min 0 W/m 3,2 km/h (1 Bft) 97,87 %
25.02.2020 20:30 3,7 C 2,2 C 2,2 C 95 % 997,4 hPa 0,0 l/m 0 min 2 min 0 W/m 6,4 km/h (2 Bft) 97,87 %
25.02.2020 20:32 3,7 C 2,2 C 2,2 C 95 % 997,3 hPa 0,0 l/m 0 min 2 min 0 W/m 9,7 km/h (2 Bft) 95,74 %
25.02.2020 20:34 3,7 C 2,8 C 2,2 C 95 % 997,3 hPa 0,0 l/m 0 min 2 min 0 W/m 6,4 km/h (2 Bft) 97,83 %
25.02.2020 20:36 3,7 C 2,8 C 2,2 C 95 % 997,2 hPa 0,0 l/m 0 min 2 min 0 W/m 6,4 km/h (2 Bft) 95,74 %
25.02.2020 20:38 3,7 C 2,2 C 2,2 C 95 % 997,2 hPa 0,0 l/m 0 min 2 min 0 W/m 9,7 km/h (2 Bft) 97,87 %
25.02.2020 20:40 3,7 C 2,2 C 2,2 C 95 % 997,1 hPa 0,0 l/m 0 min 2 min 0 W/m 6,4 km/h (2 Bft) 97,87 %
25.02.2020 20:42 3,7 C 2,2 C 2,2 C 95 % 997,1 hPa 0,0 l/m 0 min 2 min 0 W/m 9,7 km/h (2 Bft) 97,87 %
25.02.2020 20:44 3,6 C 2,2 C 2,2 C 95 % 997,1 hPa 0,0 l/m 0 min 2 min 0 W/m 6,4 km/h (2 Bft) 95,65 %
25.02.2020 20:46 3,6 C 2,2 C 2,2 C 95 % 997,0 hPa 0,0 l/m 0 min 2 min 0 W/m 6,4 km/h (2 Bft) 95,74 %
25.02.2020 20:48 3,6 C 2,2 C 2,2 C 95 % 997,0 hPa 0,0 l/m 0 min 2 min 0 W/m 6,4 km/h (2 Bft) 95,74 %
25.02.2020 20:50 3,6 C 2,2 C 2,2 C 95 % 997,0 hPa 0,2 l/m 0 min 2 min 0 W/m 9,7 km/h (2 Bft) 97,87 %
25.02.2020 20:52 3,6 C 2,2 C 2,2 C 95 % 997,1 hPa 0,0 l/m 0 min 0 min 0 W/m 6,4 km/h (2 Bft) 95,74 %
25.02.2020 20:54 3,6 C 2,2 C 2,2 C 95 % 997,0 hPa 0,0 l/m 0 min 2 min 0 W/m 9,7 km/h (2 Bft) 93,62 %
25.02.2020 20:56 3,6 C 2,2 C 2,2 C 95 % 996,9 hPa 0,0 l/m 0 min 2 min 0 W/m 9,7 km/h (2 Bft) 95,65 %
25.02.2020 20:58 3,6 C 2,2 C 2,2 C 95 % 996,9 hPa 0,0 l/m 0 min 2 min 0 W/m 6,4 km/h (2 Bft) 93,62 %
25.02.2020 21:00 3,6 C 2,2 C 2,2 C 96 % 996,8 hPa 0,0 l/m 0 min 2 min 0 W/m 6,4 km/h (2 Bft) 97,87 %
25.02.2020 21:02 3,6 C 2,2 C 2,2 C 96 % 996,7 hPa 0,0 l/m 0 min 2 min 0 W/m 6,4 km/h (2 Bft) 93,62 %
25.02.2020 21:04 3,6 C 2,2 C 2,2 C 96 % 996,8 hPa 0,0 l/m 0 min 2 min 0 W/m 12,9 km/h (3 Bft) 95,74 %
25.02.2020 21:06 3,6 C 2,2 C 2,2 C 96 % 996,6 hPa 0,0 l/m 0 min 2 min 0 W/m 9,7 km/h (2 Bft) 95,74 %
25.02.2020 21:08 3,6 C 2,2 C 2,2 C 96 % 996,6 hPa 0,0 l/m 0 min 2 min 0 W/m 9,7 km/h (2 Bft) 100,00 %
25.02.2020 21:10 3,5 C 2,2 C 2,2 C 96 % 996,7 hPa 0,0 l/m 0 min 2 min 0 W/m 6,4 km/h (2 Bft) 97,87 %
25.02.2020 21:12 3,5 C 2,2 C 2,2 C 96 % 996,7 hPa 0,0 l/m 0 min 2 min 0 W/m 9,7 km/h (2 Bft) 97,87 %
25.02.2020 21:14 3,5 C 2,2 C 2,2 C 96 % 996,5 hPa 0,0 l/m 0 min 0 min 0 W/m 3,2 km/h (1 Bft) 93,62 %
25.02.2020 21:16 3,5 C 2,2 C 2,2 C 96 % 996,5 hPa 0,0 l/m 0 min 0 min 0 W/m 3,2 km/h (1 Bft) 95,74 %
25.02.2020 21:18 3,5 C 2,2 C 2,2 C 96 % 996,4 hPa 0,0 l/m 0 min 0 min 0 W/m 9,7 km/h (2 Bft) 93,48 %
25.02.2020 21:20 3,5 C 2,2 C 2,2 C 96 % 996,4 hPa 0,0 l/m 0 min 0 min 0 W/m 6,4 km/h (2 Bft) 95,74 %
25.02.2020 21:22 3,5 C 2,2 C 2,2 C 96 % 996,4 hPa 0,0 l/m 0 min 0 min 0 W/m 6,4 km/h (2 Bft) 57,45 %
25.02.2020 21:24 3,4 C 2,2 C 2,2 C 96 % 996,3 hPa 0,0 l/m 0 min 0 min 0 W/m 6,4 km/h (2 Bft) 89,36 %
25.02.2020 21:26 3,4 C 2,2 C 2,2 C 96 % 996,3 hPa 0,0 l/m 0 min 0 min 0 W/m 6,4 km/h (2 Bft) 95,74 %
25.02.2020 21:28 3,4 C 2,2 C 2,2 C 96 % 996,3 hPa 0,0 l/m 0 min 0 min 0 W/m 12,9 km/h (3 Bft) 95,74 %
25.02.2020 21:30 3,4 C 2,2 C 2,2 C 96 % 996,3 hPa 0,0 l/m 0 min 0 min 0 W/m 9,7 km/h (2 Bft) 95,65 %
25.02.2020 21:32 3,4 C 2,2 C 2,2 C 96 % 996,2 hPa 0,0 l/m 0 min 2 min 0 W/m 6,4 km/h (2 Bft) 95,74 %
25.02.2020 21:34 3,4 C 2,2 C 2,2 C 96 % 996,2 hPa 0,0 l/m 0 min 2 min 0 W/m 9,7 km/h (2 Bft) 97,87 %
25.02.2020 21:36 3,4 C 2,2 C 2,2 C 96 % 996,2 hPa 0,0 l/m 0 min 2 min 0 W/m 16,1 km/h (3 Bft) 95,74 %
25.02.2020 21:38 3,4 C 2,2 C 2,2 C 96 % 996,2 hPa 0,0 l/m 0 min 2 min 0 W/m 9,7 km/h (2 Bft) 95,74 %
25.02.2020 21:40 3,4 C 2,2 C 2,2 C 96 % 996,2 hPa 0,0 l/m 0 min 2 min 0 W/m 9,7 km/h (2 Bft) 93,62 %
25.02.2020 21:42 3,4 C 2,2 C 2,2 C 96 % 996,2 hPa 0,0 l/m 0 min 2 min 0 W/m 6,4 km/h (2 Bft) 93,48 %
25.02.2020 21:44 3,4 C 2,2 C 2,2 C 96 % 996,1 hPa 0,2 l/m 0 min 2 min 0 W/m 9,7 km/h (2 Bft) 91,49 %
25.02.2020 21:46 3,4 C 2,2 C 2,2 C 96 % 996,1 hPa 0,0 l/m 0 min 2 min 0 W/m 16,1 km/h (3 Bft) 95,74 %
25.02.2020 21:48 3,4 C 2,2 C 2,2 C 96 % 996,1 hPa 0,0 l/m 0 min 2 min 0 W/m 16,1 km/h (3 Bft) 95,74 %
25.02.2020 21:50 3,4 C 2,2 C 2,2 C 96 % 996,0 hPa 0,2 l/m 0 min 2 min 0 W/m 9,7 km/h (2 Bft) 95,74 %
25.02.2020 21:52 3,4 C 2,2 C 2,2 C 96 % 996,0 hPa 0,0 l/m 0 min 2 min 0 W/m 9,7 km/h (2 Bft) 97,87 %
25.02.2020 21:54 3,4 C 2,2 C 2,2 C 96 % 996,0 hPa 0,2 l/m 0 min 2 min 0 W/m 6,4 km/h (2 Bft) 97,83 %
25.02.2020 21:56 3,4 C 2,2 C 2,2 C 96 % 995,9 hPa 0,0 l/m 0 min 2 min 0 W/m 3,2 km/h (1 Bft) 97,87 %
25.02.2020 21:58 3,4 C 2,2 C 2,2 C 96 % 995,9 hPa 0,0 l/m 0 min 2 min 0 W/m 0,0 km/h (0 Bft) 93,62 %
25.02.2020 22:00 3,4 C 2,8 C 2,2 C 96 % 996,0 hPa 0,2 l/m 0 min 2 min 0 W/m 6,4 km/h (2 Bft) 97,87 %
25.02.2020 22:02 3,4 C 2,8 C 2,2 C 96 % 995,9 hPa 0,0 l/m 0 min 2 min 0 W/m 9,7 km/h (2 Bft) 97,87 %
25.02.2020 22:04 3,4 C 2,8 C 2,2 C 96 % 995,9 hPa 0,0 l/m 0 min 2 min 0 W/m 3,2 km/h (1 Bft) 97,87 %
25.02.2020 22:06 3,4 C 2,8 C 2,2 C 96 % 995,9 hPa 0,0 l/m 0 min 2 min 0 W/m 3,2 km/h (1 Bft) 97,83 %
25.02.2020 22:08 3,4 C 2,8 C 2,2 C 96 % 995,9 hPa 0,0 l/m 0 min 2 min 0 W/m 6,4 km/h (2 Bft) 95,74 %
25.02.2020 22:10 3,4 C 2,8 C 2,2 C 96 % 995,8 hPa 0,0 l/m 0 min 2 min 0 W/m 6,4 km/h (2 Bft) 97,87 %
25.02.2020 22:12 3,4 C 2,8 C 2,2 C 96 % 995,8 hPa 0,0 l/m 0 min 0 min 0 W/m 9,7 km/h (2 Bft) 97,87 %
25.02.2020 22:14 3,4 C 2,8 C 2,2 C 96 % 995,8 hPa 0,0 l/m 0 min 2 min 0 W/m 6,4 km/h (2 Bft) 97,87 %
25.02.2020 22:16 3,4 C 2,8 C 2,2 C 97 % 995,8 hPa 0,0 l/m 0 min 0 min 0 W/m 9,7 km/h (2 Bft) 97,83 %
25.02.2020 22:18 3,4 C 2,8 C 2,2 C 97 % 995,8 hPa 0,0 l/m 0 min 2 min 0 W/m 6,4 km/h (2 Bft) 97,87 %
25.02.2020 22:20 3,4 C 2,8 C 2,2 C 97 % 995,7 hPa 0,0 l/m 0 min 2 min 0 W/m 0,0 km/h (0 Bft) 61,70 %
25.02.2020 22:22 3,5 C 2,8 C 2,2 C 97 % 995,6 hPa 0,0 l/m 0 min 2 min 0 W/m 9,7 km/h (2 Bft) 91,30 %
25.02.2020 22:24 3,5 C 2,8 C 2,2 C 97 % 995,6 hPa 0,0 l/m 0 min 2 min 0 W/m 6,4 km/h (2 Bft) 100,00 %
25.02.2020 22:26 3,5 C 2,8 C 2,2 C 97 % 995,6 hPa 0,0 l/m 0 min 2 min 0 W/m 9,7 km/h (2 Bft) 100,00 %
25.02.2020 22:28 3,5 C 2,8 C 2,2 C 97 % 995,5 hPa 0,0 l/m 0 min 0 min 0 W/m 3,2 km/h (1 Bft) 97,83 %
25.02.2020 22:30 3,5 C 2,8 C 2,2 C 97 % 995,6 hPa 0,0 l/m 0 min 0 min 0 W/m 3,2 km/h (1 Bft) 97,87 %
25.02.2020 22:32 3,5 C 2,8 C 2,2 C 97 % 995,6 hPa 0,0 l/m 0 min 2 min 0 W/m 3,2 km/h (1 Bft) 100,00 %
25.02.2020 22:34 3,5 C 2,8 C 2,2 C 97 % 995,5 hPa 0,0 l/m 0 min 2 min 0 W/m 3,2 km/h (1 Bft) 100,00 %
25.02.2020 22:36 3,5 C 2,8 C 2,2 C 97 % 995,5 hPa 0,2 l/m 0 min 2 min 0 W/m 0,0 km/h (0 Bft) 100,00 %
25.02.2020 22:38 3,5 C 2,8 C 2,2 C 97 % 995,4 hPa 0,0 l/m 0 min 2 min 0 W/m 0,0 km/h (0 Bft) 100,00 %
25.02.2020 22:40 3,5 C 2,8 C 2,2 C 97 % 995,3 hPa 0,0 l/m 0 min 2 min 0 W/m 0,0 km/h (0 Bft) 100,00 %
25.02.2020 22:42 3,5 C 2,8 C 2,2 C 97 % 995,3 hPa 0,0 l/m 0 min 2 min 0 W/m 0,0 km/h (0 Bft) 100,00 %
25.02.2020 22:44 3,5 C 2,8 C 2,2 C 97 % 995,3 hPa 0,0 l/m 0 min 2 min 0 W/m 0,0 km/h (0 Bft) 100,00 %
25.02.2020 22:46 3,5 C 2,8 C 2,2 C 97 % 995,2 hPa 0,0 l/m 0 min 2 min 0 W/m 3,2 km/h (1 Bft) 100,00 %
25.02.2020 22:48 3,5 C 2,8 C 2,2 C 97 % 995,1 hPa 0,0 l/m 0 min 0 min 0 W/m 6,4 km/h (2 Bft) 100,00 %
25.02.2020 22:50 3,5 C 2,8 C 2,2 C 97 % 995,0 hPa 0,0 l/m 0 min 0 min 0 W/m 0,0 km/h (0 Bft) 97,87 %
25.02.2020 22:52 3,5 C 2,2 C 2,2 C 97 % 994,8 hPa 0,0 l/m 0 min 2 min 0 W/m 0,0 km/h (0 Bft) 97,83 %
25.02.2020 22:54 3,5 C 2,2 C 2,2 C 97 % 994,8 hPa 0,0 l/m 0 min 0 min 0 W/m 0,0 km/h (0 Bft) 100,00 %
25.02.2020 22:56 3,5 C 2,2 C 2,2 C 97 % 994,8 hPa 0,2 l/m 0 min 0 min 0 W/m 19,3 km/h (3 Bft) 100,00 %
25.02.2020 22:58 3,5 C 2,8 C 2,2 C 97 % 994,9 hPa 0,0 l/m 0 min 0 min 0 W/m 19,3 km/h (3 Bft) 100,00 %
25.02.2020 23:00 3,5 C 2,8 C 2,2 C 97 % 994,8 hPa 0,0 l/m 0 min 0 min 0 W/m 19,3 km/h (3 Bft) 100,00 %
25.02.2020 23:02 3,5 C 2,8 C 2,2 C 97 % 994,9 hPa 0,0 l/m 0 min 0 min 0 W/m 16,1 km/h (3 Bft) 100,00 %
25.02.2020 23:04 3,5 C 2,8 C 2,2 C 97 % 994,8 hPa 0,0 l/m 0 min 0 min 0 W/m 12,9 km/h (3 Bft) 100,00 %
25.02.2020 23:06 3,4 C 2,8 C 2,2 C 97 % 994,8 hPa 0,0 l/m 0 min 0 min 0 W/m 12,9 km/h (3 Bft) 100,00 %
25.02.2020 23:08 3,4 C 2,8 C 2,2 C 97 % 994,6 hPa 0,0 l/m 0 min 0 min 0 W/m 12,9 km/h (3 Bft) 100,00 %
25.02.2020 23:10 3,4 C 2,8 C 2,2 C 97 % 994,5 hPa 0,0 l/m 0 min 0 min 0 W/m 6,4 km/h (2 Bft) 100,00 %
25.02.2020 23:12 3,5 C 2,8 C 2,2 C 97 % 994,5 hPa 0,0 l/m 0 min 0 min 0 W/m 12,9 km/h (3 Bft) 93,62 %
25.02.2020 23:14 3,4 C 2,8 C 2,2 C 97 % 994,4 hPa 0,0 l/m 0 min 0 min 0 W/m 12,9 km/h (3 Bft) 97,83 %
25.02.2020 23:16 3,5 C 2,8 C 2,2 C 97 % 994,4 hPa 0,0 l/m 0 min 0 min 0 W/m 12,9 km/h (3 Bft) 97,87 %
25.02.2020 23:18 3,5 C 2,8 C 2,2 C 97 % 994,4 hPa 0,0 l/m 0 min 0 min 0 W/m 12,9 km/h (3 Bft) 97,87 %
25.02.2020 23:20 3,5 C 2,8 C 2,2 C 97 % 994,3 hPa 0,0 l/m 0 min 0 min 0 W/m 0,0 km/h (0 Bft) 97,87 %
25.02.2020 23:22 3,5 C 2,8 C 2,2 C 97 % 994,3 hPa 0,0 l/m 0 min 0 min 0 W/m 0,0 km/h (0 Bft) 97,87 %
25.02.2020 23:24 3,5 C 2,8 C 2,2 C 97 % 994,3 hPa 0,0 l/m 0 min 0 min 0 W/m 0,0 km/h (0 Bft) 97,87 %
25.02.2020 23:26 3,5 C 2,8 C 2,2 C 97 % 994,4 hPa 0,0 l/m 0 min 0 min 0 W/m 12,9 km/h (3 Bft) 97,83 %
25.02.2020 23:28 3,5 C 2,8 C 2,2 C 97 % 994,4 hPa 0,0 l/m 0 min 0 min 0 W/m 12,9 km/h (3 Bft) 97,87 %
25.02.2020 23:30 3,5 C 2,8 C 2,2 C 97 % 994,3 hPa 0,0 l/m 0 min 0 min 0 W/m 3,2 km/h (1 Bft) 93,62 %
25.02.2020 23:32 3,5 C 2,8 C 2,2 C 97 % 994,3 hPa 0,0 l/m 0 min 0 min 0 W/m 16,1 km/h (3 Bft) 97,87 %
25.02.2020 23:34 3,5 C 2,8 C 2,2 C 97 % 994,3 hPa 0,0 l/m 0 min 0 min 0 W/m 6,4 km/h (2 Bft) 97,87 %
25.02.2020 23:36 3,6 C 2,8 C 2,2 C 97 % 994,1 hPa 0,0 l/m 0 min 0 min 0 W/m 3,2 km/h (1 Bft) 97,87 %
25.02.2020 23:38 3,5 C 2,8 C 2,2 C 97 % 994,1 hPa 0,0 l/m 0 min 0 min 0 W/m 3,2 km/h (1 Bft) 97,83 %
25.02.2020 23:40 3,6 C 2,8 C 2,2 C 97 % 994,1 hPa 0,0 l/m 0 min 0 min 0 W/m 0,0 km/h (0 Bft) 93,62 %
25.02.2020 23:42 3,6 C 2,8 C 2,2 C 97 % 994,1 hPa 0,0 l/m 0 min 0 min 0 W/m 0,0 km/h (0 Bft) 95,74 %
25.02.2020 23:44 3,6 C 2,8 C 2,2 C 97 % 994,0 hPa 0,0 l/m 0 min 0 min 0 W/m 0,0 km/h (0 Bft) 95,74 %
25.02.2020 23:46 3,6 C 2,8 C 2,2 C 97 % 994,0 hPa 0,0 l/m 0 min 0 min 0 W/m 6,4 km/h (2 Bft) 95,74 %
25.02.2020 23:48 3,6 C 2,8 C 2,2 C 97 % 993,9 hPa 0,0 l/m 0 min 0 min 0 W/m 0,0 km/h (0 Bft) 93,62 %
25.02.2020 23:50 3,6 C 2,8 C 2,2 C 97 % 994,0 hPa 0,0 l/m 0 min 0 min 0 W/m 3,2 km/h (1 Bft) 95,65 %
25.02.2020 23:52 3,6 C 2,8 C 2,2 C 97 % 994,0 hPa 0,0 l/m 0 min 0 min 0 W/m 0,0 km/h (0 Bft) 95,74 %
25.02.2020 23:54 3,6 C 2,8 C 2,2 C 97 % 994,0 hPa 0,0 l/m 0 min 0 min 0 W/m 0,0 km/h (0 Bft) 93,62 %
25.02.2020 23:56 3,6 C 2,8 C 2,2 C 97 % 993,9 hPa 0,0 l/m 0 min 0 min 0 W/m 3,2 km/h (1 Bft) 95,74 %
25.02.2020 23:58 3,6 C 2,8 C 2,2 C 97 % 993,9 hPa 0,0 l/m 0 min 0 min 0 W/m 12,9 km/h (3 Bft) 95,74 %
_ Min-Zeit 21:24 17:06 17:06 13:42 23:48 - - - - 21:58 20:24
Minimum _ 3,4 C 2,2 C 2,2 C 62 % 993,9 hPa - - - - 0,0 km/h (0 Bft) 50,00 %
_ Max-Zeit 13:30 13:26 13:02 22:16 00:00 17:04 12:08 18:08 13:26 12:42 00:40
Maximum _ 10,8 C 16,1 C 15,0 C 97 % 1004,4 hPa 0,4 l/m 4 min 4 min 683 W/m 45,1 km/h
S-SO (6 Bft)
100,00 %
Durchschnitt _ 7,7 C 7,6 C 6,5 C 86 % 1000,2 hPa #5,8 l/m #4:28 h #6:34 h 269 W/m 17,5 km/h (3 Bft) 97,14 %
© 2020 W. Hausmann